GFSMA_500_rhum_000.txt.gz
RH
24 22 22 20 19 16 10 5 3 2 3 5 5 6 6 6 6 6 6 6 7 7 8 9 10 10 10 10 9 8 8 8 9 11 12 12 10 7 5 3 6 30 46
20 18 14 9 4 1 2 2 3 3 4 6 7 8 10 13 16 19 22 24 26 28 28 28 29 29 30 30 30 29 28 26 24 23 20 17 12 11 12 11 15 39 44
14 5 3 2 2 2 2 4 8 13 20 23 24 25 25 27 30 33 33 33 31 29 27 24 21 20 20 19 20 22 27 32 36 38 39 38 36 34 32 32 39 44 46
12 3 2 6 7 9 13 20 23 26 27 27 30 34 34 31 25 17 13 11 10 10 11 13 14 13 12 14 17 19 19 20 20 20 21 26 33 36 38 42 46 45 48
3 4 7 9 11 16 24 28 33 35 36 34 30 22 15 12 11 10 9 8 7 7 6 6 6 6 6 5 5 5 5 5 8 14 18 20 20 20 20 28 37 38 51
9 11 14 19 27 30 36 39 37 34 27 20 16 13 10 8 8 9 9 9 9 9 8 8 8 8 8 8 8 8 9 9 8 8 9 16 20 26 23 24 30 41 52
26 35 38 41 42 41 34 27 21 17 13 12 12 12 12 12 13 13 16 16 16 15 14 13 12 12 12 13 13 13 12 12 11 11 15 16 33 38 36 37 30 32 36
38 41 40 36 29 25 24 22 19 16 15 15 14 14 13 15 17 18 18 18 18 18 18 17 16 15 14 12 11 10 10 9 9 8 9 34 30 30 29 29 29 31 36
43 35 30 25 23 20 16 17 17 15 12 12 12 12 12 13 13 15 15 16 16 16 16 17 16 15 14 14 14 13 12 10 10 10 11 10 14 23 26 30 32 31 31
34 28 23 16 16 19 19 16 13 12 12 12 12 14 15 15 14 13 15 15 15 16 16 16 16 15 13 12 11 11 10 9 9 9 12 29 16 45 44 32 34 44 42
28 22 17 20 19 17 16 15 15 15 15 15 16 16 16 17 18 17 14 15 14 13 13 12 11 10 8 7 8 8 8 9 9 14 50 58 44 52 66 50 46 46 53
23 21 20 18 17 16 16 15 15 18 18 19 19 19 18 16 15 13 12 11 10 9 8 7 7 6 6 6 6 9 8 9 25 33 52 77 74 90 96 83 75 74 98
21 18 18 18 18 18 19 19 20 21 20 19 18 16 14 12 11 10 9 8 7 6 4 4 4 4 3 4 7 14 19 29 38 99 100 100 100 100 100 99 99 88 68
18 19 22 23 22 22 22 22 22 21 19 17 15 13 12 11 9 7 6 5 5 4 4 3 3 3 4 8 21 32 42 55 58 49 100 100 100 100 100 100 99 97 99
23 24 25 25 24 24 25 24 22 20 17 15 13 12 10 7 7 6 5 4 4 3 2 1 3 5 8 10 21 38 67 76 87 99 79 87 100 98 99 100 96 98 97
27 28 29 28 28 28 27 24 20 18 15 14 13 10 8 8 7 4 2 3 5 7 7 6 6 6 8 10 14 24 62 78 87 100 100 100 99 100 100 99 100 99 83
32 32 32 32 32 31 26 22 19 17 16 14 10 9 9 7 5 3 5 6 7 4 2 2 1 1 1 3 10 21 44 75 76 86 100 100 100 97 98 94 93 93 100
34 36 37 37 34 28 24 21 20 18 14 10 9 8 7 6 6 7 8 6 3 3 4 5 6 6 5 5 3 4 13 48 78 73 70 80 70 73 74 81 91 93 91
43 43 42 38 31 28 24 22 18 13 10 9 8 8 8 9 11 10 6 3 4 6 8 8 8 5 5 5 5 6 4 7 38 73 65 46 29 20 19 16 18 22 39
49 48 41 35 32 28 21 17 14 12 10 9 10 9 16 18 12 6 4 6 7 8 9 7 7 6 7 7 8 10 7 6 6 29 65 60 49 40 32 26 23 23 19
53 46 39 35 31 23 20 18 14 11 10 10 10 23 24 16 6 5 7 8 6 7 7 8 8 8 9 9 10 16 17 10 7 6 20 51 53 46 38 32 33 36 36
50 43 40 36 28 25 20 15 12 12 12 13 23 28 21 9 6 8 8 8 6 7 8 19 17 10 12 13 14 13 17 19 9 9 7 9 20 38 45 46 44 36 17
47 44 39 32 25 18 15 13 13 15 18 27 32 25 16 7 9 8 7 8 7 8 27 26 25 12 8 11 14 15 16 16 14 14 8 5 6 5 6 5 3 3 3
48 42 34 25 19 16 14 14 19 22 29 36 31 22 10 8 7 7 7 8 8 11 20 25 31 8 7 10 12 13 14 13 12 12 10 10 8 6 6 5 4 4 4
43 35 30 23 17 15 15 24 31 29 38 38 29 14 10 8 11 9 8 9 10 11 19 37 10 8 11 10 10 10 24 40 51 85 100 39 15 12 10 8 4 3 2
35 34 26 19 16 16 22 34 34 42 43 36 24 12 11 14 11 9 10 10 11 11 26 8 16 14 15 19 18 22 33 86 85 94 100 100 100 91 21 30 12 4 1

GFSMA_500_rhum_003.txt.gz
RH
28 26 22 18 16 14 10 6 1 0 1 2 3 5 6 9 12 14 16 20 23 25 25 24 26 28 29 29 29 29 29 30 31 31 30 27 24 21 19 18 15 12 8
27 29 28 24 15 6 2 3 3 3 5 9 18 21 25 26 26 26 26 29 30 28 22 16 13 11 10 9 9 10 10 12 13 16 21 26 31 34 37 38 35 29 23
30 30 28 21 11 4 4 5 9 15 20 24 26 28 29 31 32 29 24 17 14 11 9 8 7 7 7 6 6 6 6 8 10 13 14 14 15 17 18 20 24 31 41
27 14 4 3 7 9 11 14 18 23 26 26 32 34 31 23 17 14 12 11 10 9 9 9 10 11 10 10 9 8 7 6 6 6 5 5 5 5 5 6 8 12 16
6 6 10 16 27 32 33 34 35 34 34 30 26 22 18 14 14 14 14 13 13 12 12 12 12 14 16 17 16 15 14 12 11 10 9 8 7 7 7 7 7 12 20
12 16 24 34 34 35 36 35 32 29 26 25 21 18 16 15 13 12 12 13 14 15 15 15 16 16 16 17 17 17 17 17 17 16 14 13 15 14 13 12 9 7 8
19 27 33 37 37 34 32 28 24 21 17 16 17 16 14 13 13 13 13 13 12 13 14 14 15 16 16 17 17 17 17 16 16 16 15 13 14 26 32 33 38 48 47
25 36 41 39 34 30 25 19 17 19 21 20 16 15 14 14 14 14 13 13 13 14 14 14 14 15 15 15 15 15 14 13 14 15 15 15 15 14 14 29 39 39 37
45 45 39 34 32 25 18 20 21 18 16 16 15 15 14 13 12 13 12 12 13 14 13 12 12 11 10 10 9 9 8 8 9 10 12 12 12 12 12 20 25 34 45
43 35 34 38 28 23 20 17 16 17 17 17 18 18 18 16 13 11 14 14 13 12 11 10 10 9 8 7 6 6 6 6 6 6 6 7 9 14 49 58 54 46 54
35 40 36 26 22 19 18 21 22 22 21 21 21 20 21 20 19 17 14 14 13 12 11 10 9 8 7 6 5 4 4 4 4 4 5 6 9 25 40 53 71 96 79
30 26 24 21 19 21 23 24 25 25 26 26 26 25 23 20 18 16 15 14 13 11 10 9 6 4 4 4 4 3 2 2 2 2 3 4 12 22 26 33 60 94 98
26 23 21 22 24 26 28 29 29 29 28 29 29 26 23 20 18 16 16 15 12 10 8 5 4 4 5 4 3 3 3 5 5 4 6 8 18 23 38 38 45 93 94
24 25 26 27 30 31 32 32 30 30 32 33 30 26 22 20 19 19 16 13 10 8 5 4 4 4 3 2 3 4 4 4 4 5 7 10 38 35 43 68 83 79 100
28 29 33 34 33 34 33 33 34 38 39 35 29 25 23 22 22 19 14 9 7 6 4 3 3 2 2 4 4 3 2 2 1 1 1 7 23 54 62 76 79 100 100
34 36 36 37 37 37 36 38 43 43 38 32 29 27 26 23 18 12 9 8 8 8 6 3 2 4 4 3 3 4 7 7 6 5 4 2 8 53 84 79 70 80 100
40 41 40 40 40 41 46 49 48 41 36 32 30 25 19 13 12 10 8 10 8 10 10 5 6 3 3 5 6 8 9 7 6 5 5 5 4 12 84 99 88 90 75
43 43 43 43 48 54 54 50 43 38 32 26 21 17 14 12 11 11 12 11 13 12 14 6 3 5 7 7 6 8 6 6 6 6 6 6 4 4 33 99 100 93 98
47 47 48 55 59 58 51 44 36 30 26 19 15 12 12 13 13 15 14 18 15 15 7 5 6 6 7 7 7 7 10 8 7 7 8 8 7 3 7 77 100 100 100
51 51 58 60 57 51 41 26 15 9 7 9 12 14 15 16 19 20 26 21 18 9 6 6 7 7 8 8 11 14 9 16 9 8 12 12 10 6 4 36 94 86 86
52 58 58 55 48 27 12 9 10 13 13 13 15 16 16 21 35 37 28 22 12 7 8 9 7 8 10 10 12 16 15 5 7 13 18 15 18 10 5 7 72 80 68
56 58 51 42 19 8 10 13 16 16 16 16 16 18 26 48 45 33 30 13 9 11 9 8 8 10 11 11 22 9 6 8 8 24 21 20 28 15 8 3 35 74 50
54 46 35 19 11 12 15 16 18 18 17 18 20 32 51 54 38 38 17 11 14 17 20 28 20 14 11 25 10 9 10 10 10 15 12 13 15 13 9 5 11 59 58
36 28 23 18 18 17 16 18 18 18 18 22 47 63 63 46 45 29 11 13 16 24 31 34 18 15 23 13 14 16 11 10 26 38 31 76 88 66 16 5 4 16 46
28 24 21 17 15 15 18 19 18 16 21 49 66 66 57 46 46 14 12 20 23 30 36 24 18 22 14 20 23 14 13 13 53 79 100 100 100 87 50 24 7 4 3
18 16 15 14 14 15 17 15 14 20 38 52 61 64 55 53 30 10 23 26 25 24 22 22 19 17 25 25 27 16 8 14 75 99 100 100 100 100 100 73 28 18 10

GFSMA_500_rhum_006.txt.gz
RH
29 29 28 29 30 30 30 26 15 8 4 3 3 3 5 12 20 24 26 28 32 32 30 26 21 16 13 11 10 10 9 9 8 8 9 10 10 11 14 21 28 32 32
31 25 26 31 32 30 25 17 7 4 3 5 9 17 24 28 31 32 29 29 26 21 16 13 11 11 11 11 10 9 9 9 9 8 7 7 6 6 7 11 14 17 22
31 30 34 31 21 9 5 6 8 8 10 15 23 31 33 32 29 27 23 20 18 15 13 13 12 12 12 12 11 11 12 12 14 14 15 13 11 8 6 6 6 7 8
36 36 22 9 8 10 14 26 31 34 36 35 33 31 27 24 23 20 21 18 16 15 14 13 13 14 14 14 14 15 15 15 15 16 17 17 18 17 14 10 7 6 6
38 25 13 12 16 24 31 34 36 34 31 29 26 23 21 18 17 17 16 14 13 13 13 13 13 12 12 13 13 14 14 13 14 16 16 17 17 17 22 26 23 15 11
31 18 14 16 25 32 39 39 34 30 26 24 21 20 19 20 18 16 15 15 15 14 15 15 14 15 14 13 14 15 15 14 13 14 14 14 15 16 18 26 31 44 54
28 20 14 23 36 44 42 37 32 28 23 21 20 18 17 17 16 17 16 16 15 15 14 14 14 14 14 14 14 12 12 11 11 11 10 11 12 12 13 14 15 19 30
26 13 16 36 44 40 32 33 31 25 21 18 18 19 18 20 19 19 19 19 19 19 19 18 18 17 16 14 14 13 12 10 10 10 9 8 8 8 8 9 10 13 14
12 21 38 46 37 32 32 26 24 21 19 21 23 21 20 19 19 22 22 22 22 21 21 20 19 18 16 16 14 13 11 10 8 6 6 6 7 7 6 6 6 11 17
28 44 41 34 32 27 26 22 20 20 23 24 25 26 26 24 22 17 20 22 22 22 22 20 19 18 17 16 14 11 10 9 7 6 4 4 5 6 6 6 6 9 29
42 40 35 28 27 26 23 23 24 25 27 28 28 29 30 29 28 26 19 22 23 23 22 20 18 17 15 12 11 9 8 7 6 4 3 3 3 3 4 4 4 5 6
40 30 28 29 28 27 28 28 30 32 32 34 33 32 32 32 30 29 26 23 21 21 20 19 17 14 11 10 9 6 5 4 4 4 3 3 3 3 3 3 3 2 4
28 33 32 30 30 31 34 34 33 34 35 35 35 34 33 35 34 33 30 25 22 20 18 14 11 10 7 4 4 4 4 4 3 3 2 3 3 3 4 4 5 6 2
34 33 34 34 36 37 36 35 35 37 36 37 36 36 37 38 35 31 27 21 18 14 11 8 5 4 4 4 5 5 4 3 4 4 4 4 4 4 4 3 3 5 6
35 35 38 39 38 38 38 39 40 40 38 38 40 39 37 33 27 18 13 9 7 6 4 4 4 4 5 6 5 5 6 6 4 3 4 4 5 5 5 4 2 1 3
38 41 41 42 43 43 43 43 40 38 39 41 38 32 22 13 11 7 6 6 8 9 6 5 5 6 5 4 8 9 5 4 5 5 6 6 6 7 8 8 7 5 1
43 45 46 48 48 49 48 44 43 43 40 29 15 10 9 6 6 7 8 9 11 12 12 8 8 6 8 13 9 5 5 5 6 7 8 7 6 6 6 6 5 5 5
48 52 52 51 53 51 47 44 40 28 14 9 9 8 8 8 9 10 10 11 12 17 21 14 11 16 17 7 6 7 8 7 7 8 8 8 10 10 10 6 6 6 6
58 55 55 51 47 47 40 24 13 10 11 12 10 9 10 10 10 10 11 15 24 26 29 26 20 20 8 12 11 9 8 8 10 10 10 12 9 8 10 12 10 7 7
60 57 49 48 40 19 14 12 11 10 11 11 11 11 11 11 11 12 18 25 28 33 29 31 25 9 11 17 20 23 13 13 11 13 10 6 7 7 6 6 7 8 8
59 50 46 19 14 15 10 9 11 12 11 11 12 12 10 9 12 19 34 41 46 39 36 26 10 14 20 22 28 27 12 11 11 13 13 10 10 9 12 14 15 14 11
54 43 15 15 11 10 10 12 12 11 11 12 11 8 7 8 19 39 50 53 45 41 34 11 16 25 24 24 28 16 14 10 16 28 12 10 13 13 14 17 21 24 18
42 20 17 11 11 12 14 13 13 13 13 10 7 6 8 21 40 47 45 41 37 32 15 15 27 27 27 21 16 13 18 24 18 17 11 18 28 37 50 65 57 29 17
23 18 12 12 13 13 15 14 15 14 10 6 7 13 26 37 44 43 39 34 27 18 12 29 31 29 26 14 14 19 30 29 16 15 21 71 92 100 100 100 100 84 13
19 14 15 14 13 14 16 17 15 10 6 8 17 33 43 43 38 39 36 29 17 9 28 30 26 20 14 26 41 39 44 25 18 21 53 81 100 100 100 100 100 80 28
17 17 14 13 16 19 18 16 8 5 7 17 31 38 40 38 40 38 31 14 7 25 25 16 21 47 67 79 83 79 71 35 13 23 47 73 98 95 100 100 100 100 58

GFSMA_500_rhum_009.txt.gz
RH
36 35 32 32 26 25 31 33 31 28 20 14 11 5 5 8 12 15 19 28 30 32 30 27 24 20 18 15 12 11 10 10 10 10 10 10 9 9 8 7 6 7 8
44 39 36 33 31 34 32 20 11 7 6 8 9 11 16 22 24 24 29 30 26 23 22 17 15 14 14 14 14 14 13 13 12 13 13 12 12 12 12 13 13 10 8
50 44 42 38 37 28 13 10 11 14 23 28 32 35 34 33 31 30 28 26 25 22 20 18 16 16 15 15 14 14 14 13 13 13 13 13 14 14 15 16 16 16 16
56 49 41 38 26 15 11 12 19 25 32 37 35 32 30 28 26 23 21 19 18 18 17 16 14 14 14 14 13 14 14 13 13 12 12 12 12 12 12 13 14 16 16
50 41 38 36 29 18 11 14 19 33 41 39 35 29 24 21 20 20 20 18 17 16 16 16 16 15 15 15 15 15 16 16 15 14 13 12 12 12 12 13 14 15 42
48 45 44 38 26 13 13 35 45 44 41 36 32 29 24 20 18 18 18 19 20 20 19 19 19 20 19 18 17 16 16 16 16 15 14 15 14 13 13 12 12 12 12
50 48 39 29 12 9 27 46 43 33 32 29 26 22 20 19 20 22 23 23 24 24 24 24 24 24 22 22 22 21 20 20 19 19 18 17 16 15 14 12 11 10 10
51 38 24 9 14 30 44 39 32 29 26 24 22 21 20 23 24 26 29 29 29 28 28 28 27 27 26 24 25 25 24 23 22 21 19 18 17 16 13 11 10 9 8
33 20 13 14 32 41 37 31 27 26 24 22 22 25 27 27 26 27 28 28 27 28 28 30 31 31 30 28 27 25 24 22 21 19 18 16 15 14 13 12 10 9 8
18 13 18 38 45 35 28 28 28 25 25 28 30 30 28 26 25 22 23 27 28 28 31 32 29 27 24 24 23 22 19 17 14 13 12 11 11 10 10 10 9 8 8
15 28 48 43 32 31 30 29 29 31 32 34 33 32 32 32 31 26 20 22 27 30 28 27 25 21 17 14 10 7 6 4 4 4 4 4 4 4 4 4 4 4 4
38 53 39 33 33 33 34 36 38 38 36 36 34 33 32 32 32 32 29 26 23 24 22 17 11 7 5 4 4 4 4 4 4 3 3 3 3 3 3 3 3 4 4
54 38 35 35 36 39 39 41 40 39 39 39 38 38 38 38 36 33 29 24 20 16 11 6 5 5 5 5 5 4 4 4 3 3 3 4 4 3 3 3 3 3 3
38 35 35 38 40 41 43 41 42 41 40 40 38 39 38 32 24 14 11 11 10 6 5 5 6 5 5 5 5 4 4 3 2 3 3 3 3 5 5 5 4 4 4
36 37 39 41 43 43 42 42 41 40 38 38 38 27 16 8 7 7 7 7 7 6 6 5 5 6 6 5 4 3 3 3 4 6 9 8 7 6 5 5 4 4 3
39 40 43 43 45 47 45 42 40 39 37 22 12 10 7 8 8 8 8 8 7 7 6 6 5 5 4 4 4 6 9 13 17 14 8 7 7 6 6 5 5 5 6
42 43 44 46 52 50 47 43 41 31 14 11 8 9 12 10 8 8 8 7 7 7 7 5 5 4 4 5 10 18 24 22 12 9 13 17 15 8 7 7 7 8 7
46 47 50 56 55 52 46 43 27 12 9 8 13 15 12 9 9 8 8 7 6 6 6 6 5 8 16 24 25 25 19 8 14 19 20 22 26 22 13 10 10 9 8
50 52 58 59 59 51 46 27 16 9 11 14 14 13 10 10 9 9 8 6 5 6 11 18 18 24 24 26 22 16 6 18 22 23 24 30 26 14 14 12 11 9 7
54 60 64 64 57 50 31 21 14 13 13 13 12 11 10 10 12 9 5 4 8 16 25 29 29 28 25 21 11 7 16 22 26 21 17 18 16 14 12 10 10 9 8
60 68 68 62 53 34 22 16 16 14 15 13 12 12 14 15 10 5 6 11 22 30 31 31 30 26 20 8 10 21 16 17 17 14 12 21 18 18 17 11 8 8 9
72 72 65 55 34 24 20 20 21 19 13 12 13 16 18 12 5 8 20 27 34 35 35 36 32 18 7 18 19 11 11 15 32 50 20 29 12 15 13 19 17 20 16
77 67 55 33 26 24 25 21 13 13 14 18 21 22 13 6 12 20 25 32 34 37 42 29 12 8 21 17 13 21 35 48 64 60 23 15 12 14 28 84 90 95 88
65 49 32 27 27 24 14 13 14 16 21 24 26 14 6 12 22 27 28 27 28 24 13 8 14 24 17 35 65 60 55 65 90 85 23 9 20 47 78 99 100 98 91
40 31 29 28 18 13 14 16 19 24 24 26 14 6 15 18 16 11 11 9 8 8 8 26 26 30 85 85 77 75 78 84 100 100 46 16 44 83 85 100 99 99 98
32 34 28 16 14 16 18 24 30 30 28 14 7 16 15 10 11 12 11 9 9 16 28 27 70 100 99 97 98 92 81 82 91 99 70 37 47 70 99 100 95 99 100

GFSMA_500_rhum_015.txt.gz
RH
54 50 52 44 34 33 38 48 42 38 36 27 18 12 10 11 14 21 26 30 34 36 38 38 36 35 33 30 28 25 21 20 18 16 15 13 12 12 11 11 10 9 9
54 51 47 40 42 43 46 44 40 39 33 32 22 13 10 14 21 27 32 34 35 34 32 31 29 25 23 22 21 21 20 20 20 19 18 17 17 16 16 16 15 15 14
53 50 39 43 49 47 47 45 45 43 37 25 14 10 13 24 32 38 40 40 37 35 29 24 22 22 21 20 20 19 18 18 18 17 17 16 16 15 15 14 14 14 14
50 52 45 52 52 51 51 49 46 38 25 16 10 12 19 33 41 44 42 39 36 33 30 27 25 22 20 19 20 21 21 22 22 22 22 22 21 20 19 18 17 16 15
49 53 54 51 47 48 46 42 37 31 26 26 22 17 31 43 41 37 34 30 27 25 23 22 22 22 23 24 26 27 27 27 27 28 27 27 26 26 24 24 23 22 22
43 22 49 48 46 44 46 46 37 24 16 16 18 22 41 39 35 32 30 28 27 26 29 31 31 30 30 29 28 28 28 28 27 26 27 26 28 28 27 26 26 25 25
13 27 37 41 44 45 39 26 20 16 13 24 47 47 44 39 35 32 29 32 35 35 34 34 33 32 31 31 31 31 32 33 32 31 31 31 30 30 30 30 30 28 26
35 43 41 36 28 23 19 19 14 15 41 51 44 39 34 32 32 35 38 38 37 36 36 36 36 35 35 36 36 34 31 28 25 22 19 18 17 15 14 15 17 20 22
50 47 41 29 20 19 19 14 18 52 50 44 42 38 35 37 39 40 41 41 41 40 38 37 37 36 33 27 19 13 12 12 11 9 8 8 7 7 7 7 6 6 6
56 50 32 21 18 22 15 18 50 54 44 36 36 38 40 41 45 44 44 43 40 38 36 35 30 24 20 16 15 14 12 10 10 10 9 9 8 7 6 6 5 5 5
55 38 23 18 19 15 18 50 57 44 36 40 41 43 47 49 46 46 44 40 38 37 32 26 20 12 11 12 11 11 11 12 11 10 9 7 6 6 5 5 4 4 4
43 26 18 19 15 26 54 59 45 38 40 41 44 54 51 49 53 50 41 34 29 30 30 21 15 14 15 15 14 15 15 14 12 10 9 8 7 6 6 5 4 4 4
28 20 19 17 31 56 60 46 40 42 43 49 57 52 54 60 55 50 39 34 30 28 25 23 20 18 16 17 18 16 12 11 10 8 6 6 6 5 5 4 4 4 3
21 19 19 36 58 64 51 46 48 46 52 51 49 58 65 62 54 44 38 31 26 24 22 17 16 17 18 14 10 8 8 7 6 6 6 6 5 4 4 3 3 2 2
19 21 46 64 65 62 63 56 44 50 53 53 60 69 68 56 45 33 27 28 26 18 16 17 14 10 9 8 8 8 7 7 6 5 4 3 3 4 5 5 6 7 7
28 59 71 64 64 69 58 44 54 61 49 61 71 73 57 42 30 30 31 16 14 13 15 12 9 9 9 9 9 8 6 4 4 4 6 8 11 12 14 14 14 14 14
70 78 68 66 72 54 52 67 57 47 65 74 78 56 39 32 34 28 17 15 14 13 10 9 9 9 9 7 5 3 3 5 7 11 15 19 21 21 19 17 12 9 6
84 72 68 77 68 72 85 51 47 70 80 80 53 37 36 36 26 20 16 13 11 10 10 9 9 6 4 3 4 5 6 7 8 9 11 17 21 20 14 6 6 10 11
72 73 84 82 88 80 56 67 71 84 77 49 38 38 34 24 18 16 13 12 11 10 9 6 4 4 4 5 6 6 8 10 10 10 10 9 10 7 12 10 9 9 10
84 90 92 98 84 72 66 72 86 71 45 40 38 29 21 18 15 14 14 14 12 9 6 5 6 5 8 7 7 8 7 9 9 13 16 23 23 29 26 19 25 30 16
92 97 94 79 62 69 86 89 66 46 42 37 24 22 18 16 18 17 16 13 8 4 6 6 8 8 8 13 20 24 27 34 50 86 82 99 72 64 60 47 46 39 17
95 90 59 61 85 87 88 62 47 42 35 24 22 19 18 20 20 17 10 5 5 6 6 11 9 14 17 38 72 87 96 100 100 100 68 86 69 58 68 68 73 37 19
67 53 74 81 88 83 58 49 44 33 25 24 21 22 22 21 16 9 4 6 6 8 13 11 13 28 64 82 89 98 100 100 100 99 62 95 87 83 76 87 64 36 25
61 73 77 92 75 56 49 42 31 27 26 24 25 24 21 14 7 4 6 6 10 12 12 14 46 71 80 81 87 98 94 100 100 97 81 100 96 100 100 100 58 42 58
72 84 88 69 58 49 38 31 28 26 25 26 24 20 14 7 5 6 7 11 12 13 20 67 78 82 90 93 92 93 94 95 100 99 87 97 97 89 100 99 71 56 62
87 80 68 60 48 36 32 30 28 28 24 22 21 12 5 6 7 8 12 12 17 52 84 92 95 98 96 98 92 89 88 87 93 100 96 96 96 83 99 88 80 70 83

GFSMA_500_rhum_018.txt.gz
RH
66 61 51 52 50 47 41 38 45 43 43 41 39 35 32 25 14 12 11 11 15 24 32 34 34 32 31 30 29 28 24 24 24 23 22 22 21 20 18 17 16 14 13
69 60 58 54 49 42 38 48 50 53 51 47 42 34 24 21 17 15 15 20 28 35 40 41 39 36 33 28 25 23 22 22 21 20 20 20 20 19 19 18 17 17 16
66 61 59 53 51 44 50 53 54 52 49 43 36 31 26 24 24 21 24 30 38 45 43 40 37 34 32 28 26 24 21 20 20 21 21 21 22 22 22 21 21 20 19
66 58 54 52 51 54 52 50 50 48 45 46 42 35 22 17 21 23 32 40 39 35 32 30 28 26 25 24 24 25 25 25 26 26 27 27 28 27 27 27 26 26 25
62 52 50 50 40 39 52 49 46 46 47 36 24 19 16 16 24 38 42 40 38 34 31 30 30 31 34 35 34 34 33 32 31 30 29 28 28 28 28 27 27 26 26
60 49 51 38 18 31 40 43 42 32 23 20 16 14 21 44 48 44 39 36 35 33 34 38 39 39 39 39 39 38 36 34 33 32 31 31 32 32 32 31 31 31 31
51 51 41 19 31 42 39 33 24 19 21 19 17 30 47 50 48 44 38 36 38 40 40 40 42 43 42 40 38 36 35 34 32 31 30 29 28 27 26 24 24 25 26
54 52 51 48 49 48 42 26 19 21 24 18 30 52 51 44 40 38 42 43 43 45 46 46 47 46 44 40 37 34 33 30 27 24 22 19 18 17 16 16 15 13 11
56 51 53 58 59 51 33 21 19 24 17 20 41 51 48 42 44 45 47 49 52 54 54 56 53 48 42 39 37 32 27 23 20 17 15 14 15 14 12 11 10 10 10
58 52 50 52 57 48 27 18 22 17 20 40 56 51 44 46 48 43 50 57 55 55 60 57 50 44 41 39 35 31 26 22 19 18 17 17 15 14 13 15 15 14 13
56 51 46 50 49 36 20 20 18 24 45 58 51 47 50 50 51 53 53 54 56 64 59 52 45 40 36 31 28 26 24 24 23 20 17 16 17 18 17 15 13 11 10
51 47 46 47 43 24 20 20 31 56 64 58 56 58 53 52 55 62 59 52 48 50 51 44 36 30 28 28 26 21 18 16 16 16 16 14 12 12 11 11 11 10 10
45 43 43 44 28 22 21 37 61 65 66 70 66 53 48 57 64 54 59 55 47 45 44 40 34 32 29 22 20 18 17 16 14 14 13 12 11 10 10 10 10 10 10
40 39 39 29 24 21 42 67 65 67 74 71 49 52 69 59 46 65 64 58 48 44 37 34 33 26 24 21 18 18 17 14 13 13 12 12 12 11 10 9 7 5 4
33 34 31 25 23 52 74 71 67 74 64 60 76 82 56 64 70 73 65 49 42 37 30 28 24 21 20 20 19 17 16 16 15 13 10 6 4 3 4 4 4 4 4
38 33 24 34 63 77 71 68 80 72 79 89 75 66 68 76 76 59 45 44 44 34 28 25 24 24 22 19 18 16 14 10 6 4 4 5 5 5 4 5 5 6 7
34 23 48 68 78 69 68 84 88 92 91 72 66 75 83 74 56 47 49 40 27 24 23 22 17 14 10 10 10 7 5 4 5 6 6 5 4 4 5 6 8 8 8
26 52 65 72 71 79 86 94 94 81 61 72 83 85 70 54 52 47 29 26 24 19 14 10 7 7 7 6 4 5 5 7 11 18 18 13 10 7 7 8 8 8 8
51 68 73 83 86 91 94 85 56 66 79 82 82 65 55 54 32 28 26 19 12 12 11 10 6 4 4 5 5 7 11 32 50 64 54 63 65 50 36 25 18 17 16
73 84 88 95 94 85 56 56 72 76 83 78 60 60 42 31 29 25 18 12 11 11 10 5 4 5 5 6 8 28 57 68 71 68 56 72 67 66 70 66 62 59 48
87 93 93 84 74 48 62 72 76 84 73 64 55 35 32 29 23 17 12 10 11 8 4 5 6 6 7 17 55 69 75 77 98 63 67 96 70 83 80 64 59 57 59
94 85 83 71 48 68 72 81 82 72 66 44 36 33 31 26 20 14 11 8 6 6 7 7 6 9 43 57 67 74 81 90 91 92 79 100 77 89 82 93 90 85 85
75 77 55 58 74 74 84 80 72 59 43 37 34 28 23 19 16 12 9 5 7 8 8 8 31 57 59 66 77 84 88 94 90 80 68 100 89 98 95 100 97 86 97
68 52 72 73 78 84 77 68 52 45 38 35 30 25 19 15 14 9 5 6 7 9 15 57 64 64 69 74 75 75 77 89 99 85 62 95 82 87 94 76 80 94 99
70 74 72 80 81 71 61 52 46 39 38 32 26 19 15 13 9 4 6 7 8 19 70 76 68 72 80 84 82 77 80 81 90 100 83 99 95 97 99 95 91 100 75
68 77 79 72 67 56 55 45 40 37 30 23 19 16 15 8 5 8 8 9 24 72 77 82 87 91 91 93 86 78 79 80 76 98 100 100 81 30 87 93 100 100 88

GFSMA_500_rhum_021.txt.gz
RH
61 66 69 66 63 53 49 48 38 38 43 50 51 49 46 44 35 28 24 26 24 20 19 21 24 28 34 36 37 39 37 34 30 26 24 23 23 22 22 22 21 21 20
63 63 67 67 60 58 52 50 44 44 48 50 51 48 45 44 40 36 28 23 25 22 23 36 41 41 42 41 40 38 35 32 30 28 24 23 22 21 21 20 20 20 20
74 71 70 67 60 56 53 51 52 51 53 52 50 45 45 41 28 21 18 18 19 21 30 39 38 34 32 30 28 27 26 26 25 26 26 25 24 23 22 21 22 22 22
78 76 76 66 57 52 52 50 33 51 56 51 45 42 26 22 21 17 14 20 36 45 44 40 38 34 32 31 31 33 35 36 36 36 35 34 33 32 32 31 30 29 28
84 77 72 64 56 51 52 36 20 47 43 42 33 23 22 21 18 16 33 43 47 46 43 39 35 34 35 38 40 40 40 40 41 41 40 39 37 36 34 33 32 30 30
85 74 69 64 53 52 35 16 32 41 41 36 24 20 24 23 19 32 46 48 48 46 42 40 42 42 41 39 39 41 43 44 44 42 40 38 35 34 33 32 31 31 31
84 74 70 64 54 52 49 46 48 49 43 28 22 21 23 20 22 40 45 46 45 42 43 43 40 40 43 43 44 44 46 47 45 40 37 34 32 31 30 29 29 29 29
82 77 74 64 56 53 54 56 61 58 42 26 19 20 22 30 40 51 48 43 43 46 46 46 49 53 52 51 49 51 49 45 41 36 33 32 30 29 28 27 25 23 21
78 78 75 69 62 54 52 51 53 52 41 21 19 23 23 35 44 50 48 47 48 50 51 55 58 58 58 57 58 54 50 45 40 38 36 34 32 31 29 28 25 23 20
71 73 72 69 63 56 52 50 49 50 34 21 22 21 28 41 47 46 52 54 51 51 56 62 57 60 61 56 52 48 46 43 40 36 33 31 29 28 27 26 25 24 22
53 58 62 61 56 52 49 47 46 43 23 22 25 37 49 50 47 38 42 55 54 64 60 54 63 66 64 54 46 40 37 36 34 33 32 31 30 28 25 21 18 17 16
43 48 51 49 47 46 45 44 43 28 23 21 40 52 54 50 58 62 58 60 63 58 61 65 71 57 48 43 41 40 40 38 35 31 28 25 23 22 21 20 20 19 18
37 41 43 44 44 42 40 39 27 24 25 41 54 52 57 67 72 75 73 65 52 49 45 47 55 49 47 44 36 28 26 25 23 22 21 19 17 16 15 15 15 16 16
27 35 40 39 37 40 38 30 26 31 44 56 54 73 80 81 78 74 63 55 42 47 52 46 45 36 30 24 15 14 12 10 8 7 7 6 6 6 6 5 5 5 6
13 20 24 31 41 42 31 27 36 49 55 66 79 81 81 72 64 65 64 66 62 45 36 33 26 18 13 10 9 8 8 7 6 5 4 4 3 3 3 3 3 3 3
10 18 33 52 45 32 30 41 52 61 80 81 76 73 59 62 68 72 68 63 54 39 27 17 11 10 9 8 8 7 6 4 3 3 3 3 4 4 4 4 7 9 8
26 42 60 47 32 36 46 56 78 85 82 76 52 55 66 73 76 69 60 47 36 29 15 10 10 8 7 7 6 4 3 3 4 5 5 6 9 18 28 34 45 51 52
47 62 48 35 43 56 68 84 84 80 69 46 62 71 80 74 69 57 43 37 27 21 16 12 10 9 6 4 3 4 4 6 7 15 37 46 43 50 55 59 50 41 45
60 45 42 55 72 85 86 81 81 58 48 66 74 79 72 63 51 43 36 29 23 19 14 12 8 6 3 4 4 5 14 44 55 55 58 57 63 60 68 57 55 56 51
42 46 70 90 90 87 75 75 51 56 70 77 76 69 57 48 43 34 27 20 14 13 12 10 6 3 5 5 19 42 47 60 68 66 72 81 72 70 61 53 59 68 72
54 84 94 94 80 74 73 53 66 72 78 74 64 53 51 41 34 26 17 14 14 13 9 5 3 6 6 36 52 54 56 70 82 61 69 94 76 82 78 75 67 66 74
98 96 95 82 82 70 63 69 73 76 68 59 53 53 40 34 24 19 17 14 12 8 4 5 6 5 41 53 53 59 69 74 83 82 66 100 77 91 72 73 68 78 81
97 94 90 87 70 70 70 77 72 64 59 57 52 39 29 22 20 17 12 10 6 5 7 7 6 50 58 60 65 75 83 80 80 79 66 94 72 88 56 44 21 25 88
94 91 81 70 71 74 77 66 63 59 62 50 36 26 23 18 15 12 10 4 5 8 8 8 58 63 64 63 66 69 73 83 86 84 61 80 68 36 14 23 41 75 100
91 72 70 70 80 68 65 64 61 65 45 30 27 23 16 14 13 8 3 4 8 9 29 65 63 58 62 66 65 70 75 77 80 92 75 83 54 42 30 56 94 100 100
71 68 78 76 62 65 66 66 59 36 27 24 20 18 16 13 6 3 4 8 9 41 74 76 83 77 71 69 64 59 59 67 72 94 85 91 30 15 62 58 83 94 85

GFSMA_500_rhum_024.txt.gz
RH
72 63 63 64 68 66 66 56 54 51 48 39 42 47 51 50 46 44 43 40 36 29 24 21 21 19 18 25 28 34 39 40 39 39 38 36 34 30 26 24 23 23 24
72 67 65 66 66 67 65 59 56 52 50 50 48 53 55 53 47 44 32 24 23 20 14 14 16 16 17 24 32 37 36 33 32 31 30 29 29 28 27 25 23 22 21
63 68 72 73 73 72 67 60 54 52 51 45 42 54 56 48 44 28 23 26 23 14 11 17 26 34 38 39 39 39 36 33 31 30 31 32 32 31 30 29 28 27 25
81 77 78 75 74 76 68 58 52 51 51 39 27 55 46 43 31 22 25 26 20 16 25 34 40 44 45 45 44 40 37 34 35 36 38 39 39 39 39 39 37 35 34
90 82 80 81 77 74 65 59 54 51 28 19 29 40 42 37 24 20 23 24 20 26 38 44 45 46 45 44 41 41 42 42 42 40 39 39 39 39 40 40 40 40 38
91 92 82 85 79 70 66 59 55 51 48 46 48 51 47 34 21 20 24 24 23 29 39 44 46 45 42 42 42 41 36 33 34 38 37 37 38 40 43 44 43 40 37
80 87 81 86 81 74 69 65 58 54 50 51 58 59 54 39 21 20 25 23 25 32 39 41 40 38 38 38 35 36 40 43 45 46 46 44 45 47 45 43 40 37 34
61 70 78 81 83 77 78 73 66 58 53 53 53 52 55 45 23 22 25 23 29 39 43 44 45 44 40 40 45 49 51 49 48 48 47 46 45 45 45 43 41 38 35
48 60 70 74 79 78 80 78 69 62 54 53 52 51 49 42 23 27 33 40 50 51 50 52 53 53 54 54 58 56 51 51 50 48 46 44 43 42 42 41 41 39 37
57 47 53 61 69 72 68 66 64 58 51 50 50 48 45 33 26 24 42 51 58 62 60 61 63 67 69 66 59 57 56 51 50 51 49 47 44 42 40 38 36 34 33
45 35 40 45 50 52 50 53 51 48 46 48 50 42 29 26 23 21 36 48 47 64 66 74 80 77 67 60 57 54 54 53 48 45 43 40 38 34 31 28 27 27 27
54 44 36 36 40 42 43 44 45 45 42 37 35 29 27 25 29 31 29 49 65 80 81 72 64 64 62 60 57 52 44 33 23 16 14 14 14 14 15 15 15 15 16
36 30 31 31 34 38 40 44 42 35 31 32 29 28 24 32 35 48 52 56 60 57 51 47 62 60 55 50 40 33 25 14 10 10 9 9 8 8 9 9 8 8 8
30 24 25 25 23 26 31 31 32 36 38 31 25 27 36 45 62 64 62 51 46 41 43 49 45 38 35 32 28 15 10 11 10 10 8 6 5 5 5 4 4 4 3
41 36 27 19 15 16 24 36 52 46 33 27 32 43 61 65 67 57 43 42 36 38 41 40 37 35 30 24 14 9 8 8 6 5 4 4 3 2 2 3 3 3 3
40 33 34 36 31 33 53 61 45 34 30 46 63 70 70 69 46 43 43 57 50 39 31 38 34 24 14 10 8 6 6 5 5 4 2 2 3 4 12 22 28 30 33
62 67 61 43 44 66 64 43 34 41 64 75 73 73 61 46 49 58 58 45 42 42 39 30 20 13 9 8 7 7 6 4 2 3 4 12 25 27 38 39 40 40 41
80 72 58 49 74 68 44 39 53 79 86 74 73 58 53 56 69 53 46 47 46 37 24 15 11 8 7 9 7 5 2 4 4 17 43 39 37 54 53 60 57 53 55
81 71 57 76 68 50 49 72 87 90 77 78 62 59 68 67 52 50 52 47 31 20 16 10 8 8 8 7 4 3 4 7 40 42 43 46 60 59 57 57 52 56 58
84 65 80 80 63 61 86 92 93 85 75 65 64 73 61 52 53 53 45 29 20 13 11 10 9 8 7 3 4 4 18 53 50 48 59 63 61 59 60 48 53 54 45
74 80 99 74 79 95 98 95 85 70 66 72 72 58 55 57 55 36 23 16 13 13 13 11 9 6 3 5 5 46 57 60 83 57 63 81 66 68 63 65 66 46 14
74 100 75 93 100 100 95 82 67 67 76 65 59 62 60 47 26 20 17 16 14 13 11 8 4 3 6 6 50 59 62 62 75 92 60 88 70 79 68 64 18 11 17
92 82 100 100 100 94 76 68 74 75 64 63 66 58 33 25 20 17 14 13 14 10 5 3 6 8 8 46 54 55 69 70 76 80 58 97 76 83 66 30 15 23 44
97 100 100 100 90 70 70 79 72 67 68 66 45 30 26 20 17 14 13 12 8 4 4 8 12 37 61 57 58 58 60 62 70 77 52 80 73 90 70 16 31 50 63
100 100 97 74 69 76 80 72 69 73 59 36 33 25 20 17 16 12 11 7 4 6 9 22 68 67 62 62 59 56 60 53 40 21 39 59 73 85 52 25 54 70 83
99 76 68 71 83 78 72 70 69 44 34 29 22 20 19 15 12 10 5 4 6 9 39 80 76 69 50 36 30 34 33 24 20 16 17 21 80 80 45 42 58 74 93

GFSMA_500_rhum_027.txt.gz
RH
38 39 60 72 64 61 64 65 65 64 55 52 52 50 47 42 47 49 51 45 43 32 24 26 24 15 10 11 13 12 12 17 23 29 33 35 37 36 36 36 36 32 26
38 48 51 64 71 64 61 59 60 64 60 57 53 52 50 44 47 50 51 46 38 23 28 27 20 13 11 18 24 27 27 25 25 26 31 35 35 33 32 31 30 29 28
36 48 56 66 72 74 75 73 73 70 64 55 52 51 50 40 35 51 47 40 31 22 26 27 20 14 16 25 32 36 38 39 42 42 41 39 38 36 35 35 34 32 30
36 38 67 72 79 78 80 80 78 76 66 58 53 50 27 19 40 40 43 38 26 20 26 30 23 17 19 29 36 41 43 43 43 42 41 40 40 40 40 40 41 41 40
29 37 52 85 91 81 80 84 79 74 66 60 55 51 47 46 49 54 54 51 33 21 25 29 26 17 19 26 34 39 40 42 41 42 42 42 41 38 36 36 36 36 37
30 31 37 75 95 91 83 85 83 71 68 65 58 54 53 53 55 57 58 59 56 37 25 29 25 18 22 29 36 40 41 41 40 37 33 30 31 33 35 37 39 42 43
32 33 36 54 86 96 85 84 87 80 74 74 67 60 56 53 53 53 53 52 52 44 27 28 21 18 22 28 33 36 35 32 31 33 38 41 41 41 41 41 41 42 44
42 38 48 55 70 85 84 81 82 84 81 86 80 69 62 55 51 51 51 51 48 35 27 24 20 24 30 32 32 30 34 43 44 45 46 48 46 43 42 41 40 41 42
47 44 46 51 63 72 73 74 74 79 78 72 78 66 61 51 49 49 50 43 33 27 25 25 30 30 28 32 42 46 50 54 52 51 47 42 38 33 30 29 29 29 32
57 50 53 60 66 61 51 54 57 63 65 58 53 54 52 47 45 47 41 30 28 24 31 39 42 47 48 50 55 54 51 48 42 39 39 43 42 38 33 31 29 27 25
64 48 57 68 60 51 39 38 41 45 44 44 45 45 45 42 37 35 28 29 22 24 29 38 52 59 62 56 50 47 43 44 49 43 36 34 32 31 30 27 24 22 21
65 50 58 68 71 61 46 38 35 37 40 37 38 38 28 26 29 28 29 20 25 45 49 56 60 51 48 47 47 49 45 38 34 33 32 31 29 26 23 20 17 16 14
68 56 54 50 45 35 30 28 29 32 30 25 21 17 25 39 33 24 17 27 38 57 62 53 47 44 45 47 42 38 36 36 35 30 18 10 8 7 6 6 6 6 6
65 62 54 50 41 38 31 29 25 19 20 23 29 45 42 29 21 31 44 46 51 59 51 45 48 48 44 39 38 38 34 25 17 12 10 7 5 5 5 5 4 4 3
67 67 58 53 51 48 38 29 39 39 42 54 55 40 29 36 56 64 64 64 60 51 39 51 46 41 36 36 34 24 13 10 8 7 6 6 5 4 4 3 2 2 4
73 78 62 58 55 50 67 68 54 52 63 58 40 35 58 70 73 68 68 61 46 45 43 43 39 40 39 30 18 12 8 8 7 7 6 6 4 3 2 3 8 27 30
84 72 68 68 74 86 80 67 58 75 59 42 46 79 84 78 74 68 51 53 58 47 41 41 42 30 16 12 10 9 9 8 8 7 5 3 3 3 9 24 29 39 41
76 83 76 81 92 95 80 66 80 74 56 65 91 90 83 75 60 52 66 54 48 46 45 38 22 15 13 12 10 9 8 7 5 3 4 5 15 35 36 37 49 50 56
96 80 80 87 100 93 78 88 94 69 84 97 94 87 72 56 67 65 54 50 50 42 26 19 15 13 9 7 6 6 6 3 4 6 17 54 44 50 48 58 56 60 61
80 79 90 100 100 92 90 100 78 93 100 96 89 65 66 74 62 56 53 46 31 23 18 15 10 6 6 6 5 3 3 5 7 45 55 62 60 60 68 63 63 60 59
86 86 100 99 100 94 100 85 97 99 96 85 65 74 73 63 58 51 35 26 21 17 13 8 6 6 6 4 3 4 6 13 51 69 50 75 59 73 73 63 60 67 65
95 100 99 98 100 96 91 100 98 95 73 69 80 72 64 58 41 28 22 18 14 9 8 8 7 4 3 4 5 15 47 57 58 100 62 68 69 80 75 71 66 75 69
97 95 87 81 90 98 100 98 90 68 76 80 70 62 49 32 26 21 18 10 8 9 10 6 3 3 5 13 45 53 60 62 74 73 58 56 58 51 59 71 67 79 45
67 64 77 97 100 100 96 72 70 82 78 67 59 39 29 24 23 16 10 7 8 8 5 3 4 9 36 56 49 42 37 28 24 29 44 46 32 23 22 30 51 77 32
64 94 100 100 98 72 71 79 85 76 64 52 36 28 24 20 14 11 7 7 7 4 4 6 28 48 36 24 23 20 22 21 24 35 30 19 20 19 16 21 33 70 34
100 100 98 73 69 75 87 82 70 62 44 34 26 23 19 13 9 8 7 6 4 4 14 42 32 22 19 17 17 18 18 18 18 19 26 23 28 19 17 44 52 69 38

GFSMA_500_rhum_030.txt.gz
RH
35 34 33 32 40 52 65 68 62 59 62 62 64 58 52 50 50 49 48 43 47 50 48 41 26 26 28 21 16 11 13 16 19 18 16 15 18 25 32 35 36 36 36
36 36 37 34 37 50 57 65 64 60 63 61 62 62 61 55 51 48 49 41 42 49 46 37 27 23 30 31 23 14 13 17 20 24 27 30 33 38 39 37 36 35 35
35 33 33 36 34 50 54 62 66 73 74 72 74 73 66 58 54 48 31 22 46 45 43 39 29 22 28 33 33 26 15 15 22 28 28 30 31 33 36 40 40 40 39
36 34 30 28 31 30 56 67 76 78 77 80 80 76 67 61 55 51 45 44 51 56 57 58 58 49 34 31 33 29 18 15 19 28 33 33 38 41 41 40 40 41 42
33 37 33 27 26 28 32 68 85 85 80 84 84 74 69 66 61 56 54 55 56 59 59 58 56 53 47 34 32 28 17 16 20 24 30 35 41 40 40 38 36 33 32
37 34 39 34 31 30 29 45 74 88 88 85 87 84 75 74 72 65 60 56 53 52 52 52 52 50 45 32 31 24 16 19 23 26 28 29 29 27 27 28 30 32 35
51 53 67 65 38 32 33 40 59 78 88 84 83 84 87 83 85 79 71 63 56 52 50 51 53 49 39 32 30 19 20 24 25 24 24 28 34 39 43 44 44 43 42
52 47 49 65 63 37 41 47 55 66 72 75 75 76 78 77 69 68 67 61 53 48 48 50 45 36 31 30 20 21 25 27 32 36 41 47 48 45 41 34 25 21 19
58 54 55 52 58 51 49 48 45 55 66 56 56 58 61 64 59 54 53 52 47 43 42 37 29 30 28 20 23 28 32 37 48 48 45 42 35 26 21 20 20 22 22
70 68 60 64 68 61 53 60 61 64 57 45 42 42 42 44 43 43 43 42 33 25 26 28 30 24 23 30 36 41 45 49 46 42 38 31 30 31 30 28 26 25 24
64 70 71 62 63 66 56 65 66 67 65 54 44 38 35 34 32 26 19 17 20 27 32 29 23 31 39 44 52 54 50 45 39 38 41 39 34 32 31 31 31 30 29
46 59 76 72 70 66 53 53 54 52 41 32 28 27 24 18 13 12 15 29 35 33 24 35 43 50 54 56 55 49 41 41 42 39 36 34 32 32 32 29 24 20 16
33 44 61 70 70 69 63 59 50 44 43 40 37 30 28 36 33 38 41 39 30 32 49 65 60 61 59 48 38 38 40 38 36 35 34 33 29 24 18 14 12 10 10
36 60 61 64 69 68 70 64 56 54 52 42 55 64 53 46 49 52 39 25 28 47 62 69 63 51 42 45 45 41 37 37 34 28 22 18 16 15 15 14 12 10 9
55 58 48 64 69 78 78 68 60 60 61 81 78 64 60 60 57 40 44 60 59 53 60 54 45 52 50 44 39 36 32 24 19 16 14 12 10 8 8 6 5 4 4
54 51 51 60 79 82 74 64 70 77 96 93 76 67 71 62 49 68 75 77 74 60 37 49 52 46 40 35 28 21 16 12 10 8 8 8 6 5 4 3 2 2 3
46 56 49 71 85 76 79 80 81 97 99 87 74 77 76 59 87 86 82 77 53 60 58 52 43 35 26 18 11 8 8 9 7 6 5 4 3 3 2 3 4 10 30
62 55 63 84 81 90 82 84 90 98 94 84 83 85 69 90 90 84 70 57 73 61 48 39 27 19 13 9 9 8 7 6 5 4 3 3 3 3 5 11 36 44 47
57 58 75 82 90 87 92 91 96 100 98 90 87 72 95 93 88 62 70 72 56 43 29 22 17 12 10 8 7 7 5 4 3 3 3 5 11 10 44 44 52 55 59
52 70 76 88 90 95 85 99 100 100 92 82 85 98 96 85 63 77 68 53 38 25 21 15 9 8 7 7 5 4 4 3 3 12 32 43 54 50 55 52 54 57 67
71 84 81 99 96 98 100 100 100 86 78 99 100 100 74 73 78 64 49 34 25 20 14 9 8 8 6 5 4 3 3 9 41 58 57 57 61 63 69 59 56 58 62
98 89 78 94 99 98 98 88 76 92 100 100 95 72 84 79 59 47 33 27 22 14 10 8 7 6 5 4 3 8 28 37 36 32 32 29 29 32 51 58 56 52 50
77 95 100 98 98 75 73 92 100 100 99 76 80 88 70 57 42 32 28 20 12 8 7 7 6 5 3 5 21 25 17 12 14 15 12 14 19 24 25 30 43 47 42
97 99 96 82 72 98 100 100 100 82 73 88 82 62 53 37 32 26 18 11 8 7 6 5 4 4 10 24 14 13 16 20 25 26 18 10 14 18 24 30 24 25 29
96 95 97 99 100 100 100 75 71 84 92 68 57 46 36 32 26 17 10 8 6 6 5 4 4 19 19 14 18 22 26 28 29 36 33 18 31 24 26 35 30 22 16
98 96 100 100 93 65 70 80 90 78 59 52 38 35 32 24 14 8 7 6 5 6 4 6 28 16 16 21 24 26 27 27 29 35 43 25 30 35 32 58 48 27 19

GFSMA_500_rhum_033.txt.gz
RH
61 48 38 36 34 32 30 31 35 41 53 57 58 58 60 60 66 62 60 53 52 51 48 43 44 49 42 32 23 28 33 32 28 17 13 16 20 21 22 23 21 21 22
29 34 34 35 34 33 32 29 32 36 40 51 59 66 68 64 67 69 64 57 53 44 38 32 48 47 42 34 24 27 36 39 37 31 24 14 16 20 22 24 26 29 35
32 32 34 35 33 31 28 27 26 31 40 50 67 72 74 76 75 75 68 62 54 48 36 42 48 54 59 60 58 55 48 42 39 35 28 19 14 16 18 20 21 24 27
40 38 36 34 33 36 30 27 25 25 32 48 67 76 77 81 80 76 71 65 60 56 56 58 58 60 60 59 56 53 50 45 38 35 29 19 16 17 19 22 24 26 29
44 39 38 39 34 34 35 30 29 28 27 39 56 70 79 83 86 85 79 76 76 67 62 58 56 54 53 52 51 52 53 47 36 34 28 18 18 19 22 24 27 29 30
52 46 47 44 48 58 60 55 35 31 31 36 53 60 71 80 81 86 88 87 82 83 79 72 63 56 53 51 50 53 50 39 33 32 22 19 21 23 24 25 26 27 28
59 57 53 52 52 53 49 68 65 41 38 45 51 59 64 67 73 78 77 78 77 72 64 63 63 57 48 46 50 45 34 32 31 22 19 23 26 28 29 33 37 40 41
46 55 58 58 55 53 52 50 52 51 48 49 49 48 61 63 50 52 55 56 58 54 50 50 50 47 41 37 33 28 31 30 21 23 28 30 32 37 42 44 42 39 36
38 26 45 64 64 60 56 59 64 66 58 55 62 66 66 58 44 39 38 38 38 40 39 36 30 21 17 19 26 31 28 22 28 32 33 37 43 45 42 37 30 24 21
42 43 35 47 56 62 61 60 66 69 62 61 69 68 68 62 50 37 29 25 23 19 14 12 14 22 29 33 32 24 27 35 40 45 50 47 39 32 28 27 27 26 26
47 44 46 45 44 60 63 66 72 80 65 57 59 52 44 38 37 35 34 31 32 35 35 36 38 39 36 27 28 40 46 52 55 49 37 31 30 32 32 31 30 29 27
43 44 53 57 47 52 56 65 66 68 71 69 62 55 52 51 47 42 45 51 48 51 52 49 40 32 32 43 48 51 54 49 39 38 44 43 38 35 32 30 30 28 27
47 30 43 48 45 54 57 68 62 62 68 70 65 58 57 56 60 61 57 55 51 57 52 49 52 54 58 59 59 50 41 39 43 42 37 32 29 27 24 21 20 18 16
47 34 29 46 49 61 74 60 52 65 76 80 67 67 70 69 68 67 62 56 54 51 42 75 82 76 67 57 47 45 46 44 38 32 27 23 19 16 14 14 12 11 9
47 39 36 50 56 75 75 56 56 74 82 72 81 81 82 74 74 71 65 62 55 32 45 87 77 68 56 52 54 48 39 31 24 19 14 12 12 12 10 8 7 7 6
39 39 43 43 58 81 70 60 72 82 80 90 83 82 85 85 85 78 73 57 50 63 55 70 62 56 59 52 40 30 23 18 14 12 11 10 9 8 8 7 5 4 3
46 48 46 55 75 68 64 70 81 84 93 86 83 84 96 94 93 83 64 70 85 80 71 57 60 61 47 35 25 19 15 14 13 10 9 9 9 7 4 3 3 3 3
51 51 51 96 60 72 61 70 78 89 90 87 86 99 100 100 94 67 77 93 90 70 62 66 57 44 32 25 22 18 14 11 10 9 9 9 5 3 3 5 11 12 8
54 65 63 76 97 62 69 78 86 95 95 92 99 100 100 95 77 91 95 89 68 78 71 53 41 29 24 20 16 12 11 9 9 8 5 3 5 13 26 32 31 37 45
59 62 88 94 62 67 81 80 95 98 100 99 100 100 95 93 99 98 83 75 83 66 53 36 28 23 18 12 8 8 10 9 5 4 6 13 23 24 24 27 32 38 39
74 86 71 67 81 78 88 92 99 100 100 99 96 98 100 100 96 75 83 79 60 46 34 29 23 13 8 8 9 11 7 4 4 14 17 13 12 14 16 12 12 19 27
68 64 67 88 98 91 100 99 99 99 97 98 100 100 100 80 79 84 69 56 38 34 27 20 11 9 8 9 9 5 4 5 17 16 15 20 22 24 26 20 15 12 13
71 76 96 93 100 99 95 98 97 100 100 98 100 86 74 85 79 60 47 37 33 27 15 10 9 8 8 6 5 4 12 16 17 24 26 24 28 28 33 28 21 19 15
92 96 100 99 99 98 99 94 97 100 92 75 74 85 85 65 51 39 37 29 20 12 9 8 7 7 7 4 5 15 15 18 26 28 29 14 30 34 37 39 28 26 23
99 99 98 97 93 88 99 96 67 67 79 85 88 63 52 40 38 31 21 14 12 10 10 9 8 6 4 9 17 16 22 22 20 22 35 16 30 37 37 52 43 40 31
97 78 76 86 72 50 48 69 82 86 82 58 50 39 36 31 27 18 15 14 14 11 9 9 5 5 17 18 23 25 20 18 17 16 27 16 30 38 34 57 66 56 48

GFSMA_500_rhum_036.txt.gz
RH
30 29 30 41 38 37 37 34 32 30 29 30 33 35 51 58 60 61 60 60 63 66 61 55 50 48 46 44 47 49 37 24 24 35 41 41 36 29 23 14 14 15 16
36 33 30 30 34 35 36 33 31 30 28 28 31 33 43 54 62 68 72 74 75 74 68 60 53 30 27 39 50 46 47 33 36 47 45 44 42 37 28 22 15 16 17
44 42 37 38 38 36 36 34 35 32 28 26 26 30 40 63 71 74 76 79 80 76 69 62 57 56 57 55 56 61 62 61 60 55 50 46 42 40 33 25 19 15 16
52 48 43 43 38 36 36 34 33 33 32 29 29 28 31 50 67 75 80 84 86 83 79 76 75 66 59 57 56 57 56 54 53 52 51 52 47 39 34 28 21 18 17
53 54 50 44 41 42 42 41 49 55 56 47 33 32 32 40 54 61 72 79 81 86 87 87 84 79 76 71 67 62 57 54 52 52 53 52 48 36 33 28 20 20 20
27 47 52 53 51 49 46 48 48 47 45 62 58 39 37 43 50 56 60 62 68 77 81 80 82 80 75 68 68 69 63 53 47 50 51 45 36 33 30 22 20 21 24
23 36 41 54 56 53 52 56 50 50 47 49 54 53 48 48 48 47 54 65 54 45 44 48 50 52 51 50 51 53 52 46 43 39 34 29 32 31 23 22 24 27 28
64 54 42 40 48 57 58 62 63 62 56 55 62 67 62 57 57 60 64 63 61 51 46 41 36 33 32 33 32 32 29 21 18 20 27 32 30 24 26 28 30 30 33
75 64 63 52 46 32 42 56 58 58 59 60 60 68 61 54 54 58 60 51 40 36 32 29 28 28 28 25 24 24 27 31 33 34 32 28 25 28 31 33 35 40 38
75 64 60 62 64 51 37 33 39 47 63 65 64 67 72 68 67 55 50 48 46 44 42 40 41 40 38 37 37 38 40 39 35 29 28 32 33 35 38 39 35 29 26
74 78 76 73 70 64 50 49 41 50 65 62 62 63 66 68 68 61 58 53 52 52 54 51 46 44 43 46 47 44 39 32 37 42 45 47 46 40 34 30 28 27 26
52 61 63 71 76 64 59 64 52 57 53 49 61 48 54 60 70 66 62 63 60 62 64 61 58 54 52 50 44 35 34 48 56 58 53 44 38 36 36 36 35 32 29
37 49 62 64 68 68 59 55 56 61 64 65 57 44 49 66 68 64 66 58 54 63 74 80 76 68 56 42 44 51 56 58 55 46 42 41 41 39 36 32 29 26 23
39 56 56 66 67 76 56 40 55 62 65 76 56 46 60 70 69 71 64 59 50 60 67 80 83 67 57 71 71 66 61 51 44 50 48 42 36 31 27 25 23 19 16
58 68 66 72 78 73 55 46 56 59 98 67 59 47 61 70 72 72 69 65 59 54 56 86 75 75 88 84 74 61 54 60 56 47 39 32 27 24 21 18 15 12 11
48 64 70 79 78 64 47 48 54 59 74 95 62 51 59 68 75 75 68 63 65 61 60 65 64 85 84 73 62 58 60 52 43 33 27 23 20 17 15 13 12 11 8
44 51 64 70 62 50 47 49 70 95 83 68 54 61 75 81 86 85 78 85 85 80 80 73 79 79 68 64 68 59 48 38 29 23 20 17 13 11 12 13 9 5 4
47 48 67 65 54 52 52 54 88 93 72 56 54 73 94 100 100 100 100 99 100 99 88 82 80 66 69 67 54 45 34 28 23 17 12 10 12 14 9 4 4 3 3
40 49 59 58 55 54 50 95 71 98 62 60 73 72 96 100 100 98 100 100 99 98 95 83 70 74 62 49 37 30 25 19 12 10 11 12 12 6 5 4 5 11 11
39 41 57 60 56 58 59 63 96 63 64 80 86 100 100 99 100 100 98 98 98 91 81 87 74 54 40 33 28 22 14 11 13 10 9 8 6 5 7 10 12 13 14
42 46 56 55 64 61 84 98 89 88 100 100 98 95 98 99 98 99 99 89 76 90 83 58 42 32 26 21 15 14 14 13 9 7 6 5 5 10 14 17 20 20 19
53 54 56 67 68 86 100 100 100 90 94 99 98 98 100 99 98 77 75 87 84 55 41 32 28 26 19 17 16 13 9 8 7 5 5 11 16 17 23 24 24 22 19
63 63 74 92 99 100 100 100 98 99 97 97 97 92 80 68 76 86 77 52 42 35 33 26 21 18 12 9 8 8 8 5 4 14 18 16 21 23 23 22 25 21 18
71 82 100 92 98 98 98 98 100 98 93 70 62 68 78 85 70 50 41 36 35 29 23 16 12 10 8 8 7 5 3 6 19 19 24 17 19 20 17 18 25 22 27
92 90 88 96 94 100 99 98 82 44 52 67 78 76 58 50 42 40 38 32 28 25 18 12 10 9 8 5 3 4 16 20 22 23 33 18 18 18 18 22 27 40 48
100 98 100 97 90 73 44 43 53 72 76 61 54 50 45 43 38 26 17 14 12 12 12 10 9 6 4 5 13 21 21 21 23 24 30 24 24 24 21 28 47 78 81

GFSMA_500_rhum_039.txt.gz
RH
32 34 32 31 30 29 39 37 35 34 33 31 31 30 30 34 38 42 47 50 55 60 63 67 68 68 65 59 44 36 39 46 51 46 32 22 32 44 45 44 38 32 24
24 35 40 38 38 36 34 32 32 34 34 32 30 28 27 28 32 40 48 56 61 67 72 75 78 73 66 58 56 52 46 51 49 50 46 40 49 52 48 44 42 39 32
18 34 47 46 43 39 40 38 35 34 31 32 31 30 29 29 28 30 41 56 63 70 78 84 82 80 76 74 70 60 56 57 59 62 63 62 60 56 52 50 48 43 37
22 32 41 48 51 48 47 42 37 38 36 42 48 48 46 37 32 31 32 44 52 52 63 74 81 84 86 87 85 83 78 69 64 61 56 55 54 54 52 52 53 48 40
18 27 36 44 53 53 50 44 43 45 46 50 49 45 51 58 50 38 38 44 49 50 52 54 58 68 71 71 75 78 75 71 70 72 72 66 57 52 50 53 53 47 38
30 36 21 23 42 58 54 51 50 51 54 51 47 48 47 49 53 54 48 47 49 51 57 62 53 42 40 41 42 45 47 49 51 55 55 56 56 48 46 48 44 37 33
48 54 54 41 35 45 51 57 57 54 55 55 53 53 54 53 53 56 59 55 55 59 65 64 60 53 45 39 32 28 27 26 26 26 33 41 42 38 32 27 26 30 32
42 64 63 71 64 42 43 50 52 52 52 53 55 49 50 53 56 63 63 57 56 54 49 43 40 39 38 38 37 36 35 35 34 33 32 29 24 24 27 31 33 32 29
71 82 74 73 94 91 65 52 46 32 29 38 33 33 35 58 57 56 54 60 64 62 57 51 48 48 47 45 43 41 39 39 37 36 34 34 35 36 37 36 31 28 30
66 65 78 96 97 96 86 71 68 64 42 37 36 36 46 55 43 46 49 53 59 61 60 55 53 50 48 46 46 45 46 46 46 45 44 42 40 37 33 32 34 35 35
73 68 58 73 83 95 96 97 96 93 65 54 58 49 48 49 54 50 35 45 60 64 58 56 51 50 46 46 49 52 52 53 53 48 42 36 36 38 40 43 43 42 39
39 46 42 56 63 77 90 89 93 94 77 67 63 46 50 58 62 58 36 37 46 51 57 58 55 50 43 50 52 50 52 54 45 43 50 56 56 53 51 47 40 35 30
24 35 41 41 44 60 74 79 85 87 91 76 52 50 56 56 66 62 46 40 44 57 70 72 62 56 52 52 56 55 54 49 49 63 66 64 57 50 42 35 34 36 36
38 42 37 42 54 56 65 73 80 84 87 89 64 53 54 55 82 64 51 48 52 63 79 88 90 83 72 67 66 66 66 65 65 64 58 54 48 43 43 41 39 38 35
17 21 40 51 58 70 67 74 76 86 96 87 69 55 54 99 90 68 57 56 67 69 77 97 99 100 94 90 85 82 73 67 68 62 53 49 50 50 46 41 36 32 28
15 26 29 57 84 46 56 63 76 86 83 66 55 64 78 84 89 62 57 81 92 87 77 88 98 99 86 82 85 76 78 71 61 56 63 59 51 43 36 32 28 25 21
12 17 20 19 20 21 32 52 70 79 60 48 53 60 98 96 86 78 84 94 88 85 67 63 72 80 77 85 90 72 66 60 69 68 56 44 36 30 25 22 19 17 17
15 20 31 31 22 27 32 47 61 62 48 49 56 100 97 96 78 66 84 89 67 84 74 73 87 94 92 86 73 70 81 73 57 41 32 26 23 21 20 19 16 11 9
16 75 69 39 36 53 55 55 54 57 53 52 80 99 97 95 85 100 100 100 94 92 93 92 96 90 71 81 82 68 48 37 31 28 25 21 18 12 9 10 9 8 6
42 49 64 61 49 54 55 48 58 56 55 62 83 98 91 84 90 99 100 96 98 97 99 92 72 77 80 61 44 36 32 30 26 20 14 10 8 10 9 8 6 4 4
51 41 52 53 62 60 52 57 62 60 93 100 98 96 98 100 100 100 100 99 98 86 78 82 80 55 44 38 35 31 26 24 20 14 12 11 9 7 5 4 6 15 17
56 58 69 65 43 45 51 66 67 72 100 94 99 100 99 100 99 98 94 72 72 79 73 50 45 41 37 30 24 19 14 15 14 10 7 6 4 4 7 17 18 19 21
67 78 53 45 52 63 64 95 99 99 95 99 92 100 98 99 91 65 70 78 61 52 47 43 35 28 23 19 17 18 17 12 8 6 3 4 10 20 21 26 30 30 28
84 68 74 80 88 76 100 94 96 98 98 99 99 98 98 65 63 71 55 52 47 41 37 34 30 27 24 22 20 14 9 7 4 6 17 18 21 24 26 31 33 30 28
100 80 70 91 98 100 97 99 99 97 79 76 53 54 65 58 52 52 41 35 35 33 32 32 29 23 18 13 9 6 4 5 14 22 37 24 23 23 24 30 33 36 36
98 99 99 99 99 97 98 98 98 96 58 70 52 48 50 47 34 30 30 28 28 31 31 25 17 14 11 5 4 8 17 24 24 22 35 26 30 29 24 27 30 48 64

GFSMA_500_rhum_042.txt.gz
RH
17 18 26 30 28 28 31 31 29 29 28 29 29 30 29 28 27 27 27 28 33 38 42 46 50 58 63 69 74 69 62 57 48 34 38 49 51 38 24 26 40 44 45
15 13 14 22 26 31 35 34 34 34 33 31 32 32 29 30 28 28 27 27 27 29 36 48 53 58 70 76 79 76 70 66 60 58 58 58 55 57 47 40 46 46 43
11 11 14 18 23 31 33 36 37 38 37 34 34 33 32 36 40 41 39 34 31 31 33 44 46 47 56 70 79 82 81 79 78 75 66 60 59 59 62 69 62 60 54
8 10 14 14 16 28 38 45 46 44 41 39 40 40 44 45 43 43 47 51 46 37 38 45 48 47 49 52 56 64 69 71 72 75 73 70 68 68 67 63 58 56 55
15 13 11 13 20 24 35 44 49 48 46 46 44 44 48 48 46 45 47 49 52 53 48 45 45 46 52 59 51 42 40 42 44 46 48 50 52 54 57 63 67 64 55
26 13 13 18 28 22 20 25 37 52 52 50 50 51 55 52 52 51 47 43 44 51 55 50 49 50 52 55 56 52 46 40 34 30 30 30 30 29 33 43 50 52 51
40 28 22 35 52 55 42 32 29 33 44 46 47 47 54 53 55 52 37 38 43 53 59 59 58 54 49 46 44 42 41 39 38 36 35 34 33 33 32 32 28 22 19
67 59 53 56 76 68 62 61 59 41 38 38 39 35 35 35 44 31 34 38 39 41 40 43 47 52 52 51 49 46 46 44 41 39 38 37 36 36 35 34 34 33 32
74 80 74 59 60 80 86 86 86 89 63 56 52 45 32 31 32 32 39 44 38 43 33 29 34 44 50 51 50 46 45 43 39 38 36 36 38 39 40 41 43 43 42
59 68 68 72 84 97 92 92 97 98 97 90 72 72 67 52 48 50 46 46 45 54 44 30 32 41 41 46 45 49 50 45 41 41 40 38 37 38 40 41 40 38 36
20 58 63 93 91 91 87 79 85 86 97 97 97 96 90 75 59 55 47 47 51 55 56 43 38 40 42 40 42 44 46 47 45 45 46 44 44 43 41 39 40 41 44
27 29 35 51 83 87 84 80 73 79 80 86 93 92 95 94 88 61 46 46 51 62 62 47 46 45 44 42 45 46 47 48 47 53 57 51 47 42 44 47 45 43 42
23 41 54 48 38 49 41 49 71 71 74 73 74 81 88 94 96 94 89 58 48 64 68 59 53 49 48 51 53 53 53 50 50 54 55 55 49 47 50 50 48 47 45
11 15 31 42 44 51 52 50 73 65 76 69 77 85 91 86 94 90 78 54 58 88 97 80 66 58 56 55 61 61 52 56 55 58 59 54 56 55 52 47 48 42 37
11 14 17 33 39 56 62 65 61 61 60 65 52 75 91 93 94 78 63 70 70 83 88 76 80 81 70 64 61 58 60 55 60 62 70 72 69 61 55 52 51 52 55
10 11 14 17 39 54 59 64 64 69 65 64 40 62 82 84 75 56 66 63 100 97 88 72 82 84 84 82 79 82 79 75 77 81 80 76 67 62 64 61 58 51 42
14 13 13 16 16 33 56 55 63 70 73 60 46 51 78 70 64 67 90 96 98 99 89 76 93 100 99 92 94 92 78 72 79 82 70 77 72 59 47 40 36 33 30
18 16 15 16 18 20 24 46 68 65 68 75 73 69 68 70 61 56 96 89 99 99 97 76 100 100 100 100 87 89 90 69 73 81 68 48 41 37 34 31 27 23 18
45 40 34 28 25 20 24 58 61 50 50 68 86 69 72 74 66 80 98 100 99 97 98 99 100 100 90 99 90 70 74 75 59 47 43 39 34 28 23 19 16 16 16
35 32 30 28 24 21 30 56 86 71 49 67 94 84 75 70 72 83 97 98 99 100 100 99 96 90 79 81 77 59 51 48 43 38 31 27 24 22 22 20 18 14 12
39 41 36 22 21 19 24 60 69 64 59 95 86 86 72 94 95 100 100 99 98 99 99 98 97 91 77 55 50 43 36 29 31 31 30 28 24 18 12 10 8 6 4
91 57 56 39 27 59 67 60 55 58 99 100 76 83 100 100 92 99 99 99 99 100 91 83 61 50 46 34 30 30 29 29 30 29 23 16 13 11 8 4 7 15 19
98 87 61 45 40 54 51 47 71 100 84 79 80 98 97 98 100 99 98 91 84 68 59 48 39 30 31 29 29 27 22 16 13 14 12 8 4 6 15 23 27 30 32
50 34 33 35 33 36 53 96 66 81 100 99 99 98 100 98 90 78 72 63 51 44 33 32 32 29 25 19 14 10 10 7 4 4 7 12 24 26 29 35 38 37 37
64 98 79 82 88 93 96 92 98 99 99 98 99 99 89 71 56 52 40 27 27 30 30 28 22 15 12 10 8 4 3 5 14 26 38 22 28 26 24 26 32 41 40
98 91 98 99 100 90 96 100 99 87 74 61 48 50 47 41 28 24 24 24 24 20 15 13 10 8 5 3 4 9 21 23 22 22 23 14 17 17 12 23 31 44 46

GFSMA_500_rhum_045.txt.gz
RH
10 11 12 11 12 12 14 18 22 28 32 31 29 27 26 25 26 25 25 27 26 26 26 27 28 32 40 46 48 53 64 74 72 66 60 58 54 49 51 50 44 27 25
12 12 11 11 8 7 9 12 19 29 33 34 32 32 30 29 27 27 28 32 35 36 37 32 30 31 38 41 40 42 51 66 74 76 74 70 63 60 59 59 59 60 49
18 13 8 8 7 9 12 11 18 26 32 35 39 37 36 36 35 36 36 38 38 36 42 44 41 36 38 44 42 42 45 46 48 56 66 69 69 68 66 63 61 61 62
30 39 23 8 8 10 10 11 14 20 26 40 45 42 40 41 38 39 43 42 39 44 46 43 43 50 46 44 45 46 56 54 44 41 44 49 54 58 61 61 60 59 60
28 37 43 23 14 10 9 16 18 13 20 36 41 44 45 44 44 45 45 47 48 45 34 30 31 45 50 48 47 48 52 56 57 52 46 43 39 36 36 38 42 44 46
38 49 66 35 20 11 10 18 26 16 19 21 30 40 44 42 41 41 39 42 42 36 26 28 28 37 46 55 55 53 50 46 43 41 39 37 37 36 34 32 30 28 25
39 54 59 55 36 28 19 28 46 42 43 38 33 30 33 41 35 36 34 30 32 23 32 35 29 25 26 28 34 39 41 45 45 44 44 43 42 40 38 37 36 35 33
35 46 65 75 67 67 51 51 58 64 58 56 59 50 39 39 41 36 27 30 28 29 34 38 37 42 31 20 22 29 30 28 32 31 31 37 33 29 27 25 24 26 29
16 37 53 71 83 88 84 59 54 68 85 81 94 86 76 60 55 54 52 51 47 49 48 41 43 44 47 43 32 31 32 30 28 30 32 33 30 28 29 29 28 27 28
13 23 31 49 67 72 87 99 74 80 94 85 79 96 97 97 96 84 89 86 77 59 53 46 46 49 48 53 44 39 40 37 33 34 35 34 39 39 35 32 32 33 32
15 18 29 36 33 54 78 83 91 91 96 87 80 78 80 88 96 94 93 97 94 92 80 57 49 52 48 54 52 47 45 41 38 38 38 40 40 41 40 40 37 36 36
21 29 40 36 35 41 45 67 76 84 97 92 88 81 83 81 79 70 74 81 88 89 95 93 87 76 60 61 58 57 51 45 43 44 45 45 44 42 37 35 33 29 26
18 18 30 43 35 43 46 46 63 73 82 84 80 71 75 79 73 67 59 67 76 82 97 83 65 59 54 74 74 63 51 51 50 50 46 44 47 44 41 34 31 38 40
17 21 23 35 47 54 53 54 63 73 80 81 82 71 73 67 60 62 48 54 65 99 98 72 57 74 66 82 100 82 54 55 56 65 58 56 60 55 44 43 46 46 43
14 15 17 32 56 62 57 60 58 70 82 80 72 77 78 64 64 64 44 50 60 89 83 73 84 80 91 97 96 90 71 65 67 69 68 60 52 55 57 59 52 45 39
16 19 21 19 24 56 57 65 64 72 81 84 78 75 81 81 80 81 74 53 61 94 77 59 81 98 98 97 97 91 89 88 83 75 84 87 83 77 65 52 52 53 56
20 16 16 21 23 24 30 48 53 57 65 82 88 75 75 80 79 100 72 57 70 99 72 88 72 89 96 99 98 97 94 84 82 88 87 87 77 70 59 50 45 42 41
70 43 25 18 18 20 22 25 29 31 33 43 66 69 85 97 100 76 96 61 100 75 82 92 72 92 100 99 99 99 99 98 93 92 92 79 58 48 45 37 31 25 24
95 84 70 50 36 39 37 26 21 23 24 22 23 41 94 76 66 59 59 99 97 92 92 86 99 98 99 99 98 97 98 96 93 70 53 45 34 30 28 27 24 23 24
100 99 94 76 64 56 51 48 42 37 36 40 44 57 97 94 69 63 93 100 96 76 92 100 96 98 100 100 99 98 85 57 50 45 38 32 30 28 24 17 13 12 11
100 100 100 94 64 43 38 34 31 27 27 39 78 82 78 92 96 90 98 96 98 100 99 99 100 100 99 86 65 52 41 34 30 29 30 25 14 11 11 9 7 4 3
92 99 99 100 85 54 47 51 43 30 43 96 80 56 58 82 69 100 92 78 99 100 100 98 93 92 68 42 29 27 29 27 16 14 10 9 6 4 3 3 6 10 18
100 95 77 88 95 89 75 61 60 49 58 53 91 98 79 100 93 86 96 100 100 98 90 66 45 33 28 28 26 20 14 10 6 4 4 3 3 9 17 23 26 24 23
96 78 66 100 100 89 63 55 44 40 53 100 100 99 80 90 98 100 94 64 44 32 26 25 24 24 20 15 11 8 5 4 3 4 6 7 16 16 14 16 14 11 10
92 100 72 86 56 70 100 100 82 60 67 86 87 98 100 98 85 47 31 25 24 23 19 12 8 7 6 5 4 3 3 5 10 14 11 9 16 12 13 14 13 13 15
100 95 100 100 100 92 96 100 100 99 100 98 92 60 39 30 26 25 24 16 10 6 5 5 5 5 4 4 5 10 12 10 9 10 12 28 51 39 37 34 35 38 45

GFSMA_500_rhum_048.txt.gz
RH
6 6 7 8 9 10 8 8 8 7 8 10 15 23 26 26 27 28 26 26 25 26 28 31 34 35 33 31 31 34 39 40 44 52 68 74 70 64 60 58 54 53 51
6 7 8 8 7 8 8 7 6 7 8 9 12 18 24 27 32 30 29 30 32 35 34 35 33 36 39 41 37 36 40 42 42 46 49 57 72 76 73 70 67 63 60
6 7 12 14 16 8 6 6 8 10 9 9 14 18 22 31 33 33 36 37 36 37 38 35 40 42 42 38 43 44 43 41 41 42 47 45 48 56 61 64 64 65 64
11 9 11 16 32 32 12 8 8 9 10 13 11 13 18 28 33 38 41 38 41 43 40 44 42 33 25 26 36 45 47 46 45 47 51 54 50 42 39 40 42 47 53
85 37 24 28 22 37 40 21 11 7 9 19 12 13 17 22 26 31 38 40 40 38 39 40 36 23 24 23 24 35 46 48 47 45 42 39 37 36 36 35 33 32 31
55 58 59 39 43 41 55 42 21 11 8 20 24 20 25 25 23 27 30 33 30 30 32 32 26 27 34 30 27 21 22 29 35 40 41 43 44 42 41 41 41 39 37
39 42 50 52 62 52 56 62 50 35 19 21 37 44 48 44 42 31 30 33 30 30 26 28 25 28 34 34 37 41 28 20 23 27 26 25 28 32 27 30 34 34 33
21 38 41 54 55 47 49 65 72 64 57 44 49 55 59 63 72 72 54 45 47 46 35 37 41 45 46 39 39 43 46 45 35 28 28 28 25 25 26 27 29 26 23
15 16 26 39 41 54 62 70 67 78 82 80 56 58 67 86 92 90 84 80 84 67 65 67 62 61 53 47 40 43 45 46 47 41 37 36 33 31 30 29 28 27 27
12 11 19 43 47 48 56 62 69 71 80 87 92 78 73 90 84 78 93 89 81 98 94 91 92 88 86 71 56 41 41 51 53 45 44 42 39 36 35 34 34 32 32
14 14 16 32 42 56 43 67 60 64 79 88 90 89 88 90 87 85 80 85 91 90 79 81 84 87 82 86 80 78 67 61 54 49 55 50 45 41 41 40 41 43 41
21 19 17 18 15 25 54 67 62 69 65 76 85 88 87 94 95 92 76 76 85 84 74 73 80 78 85 97 88 71 54 49 45 50 63 62 57 46 46 46 39 35 36
21 25 28 27 21 26 46 68 79 84 80 83 80 83 84 84 89 85 77 69 74 79 71 54 50 59 82 97 86 80 60 64 81 78 76 77 74 61 50 50 51 46 42
13 15 17 21 29 31 33 44 70 89 79 80 94 82 79 82 84 82 85 77 78 72 66 63 51 69 72 73 76 59 54 81 73 87 84 81 79 74 70 58 58 62 58
19 16 17 18 20 24 33 48 57 71 75 80 87 94 100 89 91 92 90 80 91 88 80 93 76 66 72 95 99 92 70 56 69 88 91 94 89 82 73 70 66 60 56
32 44 46 26 20 22 25 30 50 61 76 89 86 88 88 89 81 78 89 82 86 95 91 81 85 69 63 99 95 93 76 68 66 74 92 98 97 90 85 84 70 68 66
16 28 44 65 64 35 24 26 29 34 48 69 97 100 100 96 88 67 80 81 75 70 76 84 98 99 95 98 99 95 98 76 90 90 95 95 95 98 96 95 96 86 65
32 28 97 100 99 95 66 35 27 25 26 28 32 36 38 45 45 45 50 71 57 75 88 99 98 89 82 99 98 97 81 100 99 86 91 96 98 96 96 93 69 47 25
45 66 55 83 100 100 100 91 61 42 31 26 24 23 25 26 28 30 71 82 79 99 98 97 72 65 76 99 90 88 95 95 99 100 100 96 85 70 44 28 22 22 20
75 80 85 99 100 100 100 100 90 74 62 57 51 49 45 42 42 41 39 78 98 97 80 93 87 93 99 96 97 97 98 100 98 96 93 80 56 27 23 21 18 13 10
67 100 91 98 96 100 100 100 95 68 57 53 51 43 32 30 99 49 76 83 98 100 100 99 87 95 96 87 100 100 88 50 37 32 27 25 22 16 11 8 6 5 4
100 100 100 93 100 100 100 99 81 48 53 63 57 44 42 81 100 100 78 84 100 85 88 97 95 100 100 92 55 28 24 20 15 14 8 7 6 5 4 4 4 4 5
99 97 100 86 100 100 100 99 98 81 68 64 70 69 66 74 79 87 100 100 99 99 100 100 92 60 29 22 19 11 6 5 6 5 4 4 4 6 8 10 9 7 6
92 100 99 100 96 100 100 98 100 100 93 67 72 50 93 100 100 100 100 100 92 74 61 42 23 18 14 10 8 5 4 4 4 4 6 9 10 9 10 20 17 22 26
100 100 76 96 89 92 63 59 90 96 100 100 100 100 100 100 97 80 46 30 25 20 7 3 3 3 3 3 4 4 4 5 11 11 9 9 15 20 45 50 43 35 34
87 97 98 99 100 100 100 100 100 100 100 100 100 98 84 47 32 26 23 15 9 6 4 4 3 3 4 5 5 6 10 13 12 12 10 30 48 44 44 67 60 50 48

GFSMA_500_rhum_051.txt.gz
RH
9 7 8 6 6 7 8 8 9 8 6 5 5 6 7 11 14 15 21 23 28 27 26 28 32 31 30 27 28 31 39 38 36 37 39 39 42 50 65 73 74 72 67
27 11 12 7 6 7 9 10 9 9 6 6 7 6 7 10 12 14 20 28 29 30 33 34 31 33 28 30 35 35 35 37 42 42 40 40 40 44 46 52 59 66 70
49 37 25 9 7 7 11 15 20 10 5 6 8 8 10 10 12 17 21 32 30 36 36 34 38 33 34 29 19 17 18 27 41 45 44 43 42 44 50 47 40 41 50
34 34 54 73 53 13 16 18 23 41 29 10 7 8 14 12 12 16 22 27 36 38 36 40 39 32 32 25 20 21 19 22 30 38 44 42 40 38 37 38 41 43 42
26 30 33 44 66 68 43 30 26 26 35 35 14 8 15 18 14 18 22 26 27 30 37 34 29 26 27 22 25 29 27 26 22 20 26 33 38 41 42 42 42 40 38
14 14 20 31 46 54 66 64 46 44 45 60 48 21 11 17 25 29 34 33 28 29 32 36 28 26 26 22 24 31 32 33 37 32 22 20 23 25 25 26 27 26 24
21 21 17 14 15 32 43 51 56 62 63 58 63 56 33 21 32 47 53 53 58 55 41 39 37 32 27 28 33 38 40 35 36 42 44 39 30 25 25 26 25 25 25
12 12 12 14 13 14 18 38 49 60 59 52 54 68 64 57 48 56 64 70 82 89 81 61 58 58 50 50 54 54 57 52 42 42 43 41 41 40 36 34 32 29 28
12 11 11 11 11 12 13 15 23 46 49 57 70 68 73 78 84 63 65 77 84 86 96 88 88 92 83 88 98 92 87 80 66 57 46 44 48 50 46 43 41 38 35
12 13 20 21 23 21 15 16 23 63 88 76 92 88 82 78 92 96 80 79 94 91 84 95 89 97 96 93 88 80 88 75 78 79 73 66 52 51 47 36 43 45 41
13 15 16 19 19 21 34 52 37 43 71 80 89 99 96 88 89 94 100 97 96 97 97 96 95 92 92 83 70 64 76 78 92 78 69 51 40 41 50 54 48 55 56
13 15 21 22 23 26 24 23 27 44 58 82 82 90 94 91 87 94 100 95 100 98 98 97 90 89 90 83 59 45 47 50 81 95 76 59 52 49 60 63 61 55 66
10 11 12 14 19 25 33 37 38 36 48 65 78 85 96 94 95 97 100 97 96 95 96 96 96 96 91 92 76 53 58 54 55 76 83 69 50 53 57 50 50 66 66
20 22 26 21 18 24 20 23 24 36 54 53 49 69 93 99 98 94 99 97 99 92 96 97 99 98 96 96 86 80 83 86 71 45 72 87 71 63 61 45 58 64 69
20 18 20 29 35 45 41 36 33 27 39 53 56 65 59 76 99 99 94 94 98 98 94 89 89 96 97 89 91 85 78 73 94 62 67 91 92 82 67 72 58 64 68
10 15 28 31 28 18 27 61 59 50 53 57 64 75 75 81 90 95 99 94 97 98 88 81 98 91 98 65 68 75 87 85 88 90 99 93 99 90 78 72 71 73 62
26 36 38 35 31 30 26 25 71 85 66 70 80 71 66 72 76 83 86 84 96 95 94 72 55 66 99 88 73 73 63 98 80 76 72 96 96 93 86 69 77 80 69
32 35 22 24 28 32 41 88 78 93 100 73 71 77 64 48 44 44 49 62 57 43 46 36 83 92 99 95 98 98 99 91 69 77 74 98 87 82 79 76 86 93 99
38 42 58 67 62 72 68 76 94 100 100 100 84 56 49 55 47 38 37 36 30 32 48 34 36 50 61 62 98 95 97 98 99 98 96 90 87 86 93 93 86 61 35
36 38 43 57 55 86 93 82 95 73 94 100 100 86 59 46 42 37 39 41 44 42 68 96 64 95 96 87 96 93 92 86 90 96 96 95 86 65 36 18 12 9 7
41 40 44 67 74 72 66 96 94 79 100 100 100 97 76 68 63 60 57 49 40 34 70 71 95 93 81 93 98 99 100 96 78 72 53 29 16 14 11 9 7 6 5
69 68 76 73 78 92 99 86 99 100 100 100 82 56 50 50 49 45 38 38 51 100 100 97 71 80 100 98 93 71 22 12 8 6 4 5 4 4 4 3 3 4 4
52 62 74 97 91 100 98 100 100 100 98 66 61 64 59 63 66 99 91 94 77 92 98 96 99 89 54 26 19 5 4 4 3 3 3 4 4 4 5 6 6 6 6
55 48 62 68 80 95 92 98 100 100 100 99 100 98 74 92 97 86 67 99 100 97 86 49 22 10 7 5 4 4 4 4 4 4 5 6 7 9 10 10 9 10 13
54 60 65 73 80 84 85 94 74 86 97 98 98 98 99 100 100 100 97 78 39 25 17 11 9 6 4 4 4 4 5 6 6 8 8 11 11 12 14 13 21 29 33
44 58 72 73 81 93 94 96 98 100 100 100 100 99 94 79 60 41 26 21 15 11 10 7 6 6 5 4 5 6 7 8 10 14 14 17 17 16 16 18 20 40 42

GFSMA_500_rhum_054.txt.gz
RH
8 14 28 29 10 12 7 6 6 7 7 7 5 4 5 6 6 7 10 9 12 14 22 26 25 30 30 28 24 20 20 21 27 28 37 39 38 37 38 41 43 42 49
8 9 18 43 37 26 10 6 6 9 11 16 14 6 5 6 7 9 11 10 12 21 25 25 31 33 30 31 25 21 15 14 14 17 21 29 36 40 40 39 43 46 42
11 10 10 16 34 38 56 52 20 11 15 17 26 36 19 8 6 12 12 14 15 22 25 30 35 31 34 32 23 21 18 19 18 17 18 22 27 31 35 38 39 39 42
9 10 10 14 19 22 32 44 67 72 32 26 24 22 33 28 10 8 16 14 20 22 25 29 33 32 35 32 23 22 20 25 25 25 22 19 20 24 28 33 37 40 39
16 13 12 18 15 13 14 21 32 44 60 61 41 38 42 47 33 14 10 20 21 27 27 26 28 28 27 24 24 24 21 25 28 28 30 32 27 20 20 22 22 21 21
20 17 22 24 27 21 19 19 15 14 28 47 54 57 60 51 62 52 20 15 27 39 44 46 41 34 30 27 27 25 25 22 27 33 34 32 35 38 36 30 24 23 24
18 20 20 21 29 31 17 26 14 11 13 18 32 44 52 60 55 62 63 30 28 46 51 68 70 81 64 42 44 47 32 35 39 47 49 45 38 34 36 38 38 35 34
21 18 22 24 40 38 37 29 33 35 36 21 20 35 41 48 63 64 68 76 61 52 62 74 85 89 96 84 82 90 75 60 63 79 79 76 66 52 48 40 38 42 44
12 18 22 24 35 40 42 53 48 47 54 67 73 52 53 57 69 68 80 82 89 85 69 71 79 90 93 95 96 85 92 86 95 95 84 79 75 81 85 75 68 53 46
8 7 8 15 18 19 18 26 33 37 50 70 72 68 67 69 84 88 98 97 91 94 98 84 76 90 96 97 98 95 96 96 96 94 86 74 73 72 65 55 47 42 37
9 10 11 10 10 10 15 22 38 35 30 42 58 70 84 75 66 88 93 100 96 98 92 100 98 96 98 95 98 98 97 96 88 84 68 62 41 60 61 62 52 36 34
9 9 9 12 11 14 16 17 25 26 32 39 45 52 65 80 78 82 98 99 99 98 97 93 96 96 98 94 99 98 97 94 92 91 80 60 60 57 52 50 51 59 65
9 10 12 16 22 28 33 37 29 22 32 34 32 49 64 68 87 97 92 95 98 98 98 94 90 86 99 96 100 97 96 98 94 98 92 80 76 77 63 65 46 54 65
9 12 17 15 9 12 17 22 29 44 60 58 45 47 47 45 77 90 96 94 95 96 99 99 96 97 100 96 90 96 99 100 98 98 95 95 85 85 81 92 86 73 56
8 7 7 8 10 16 24 33 41 47 49 72 85 76 77 65 44 80 94 86 74 70 85 97 97 98 97 95 87 99 100 94 90 93 80 68 63 78 76 79 68 82 74
11 10 10 12 11 16 23 31 40 46 44 45 62 98 97 84 61 70 89 82 71 63 60 74 97 96 96 78 97 97 97 78 92 81 97 98 89 86 80 72 80 66 68
13 11 13 12 16 14 20 26 43 39 59 50 58 55 100 100 97 92 99 94 82 75 62 55 96 93 86 98 92 96 65 86 83 96 98 98 93 84 91 86 69 64 67
13 13 11 18 24 21 28 39 41 63 75 84 81 85 96 100 98 100 99 99 96 90 94 100 88 100 79 62 46 38 49 39 46 48 63 56 67 92 88 83 84 80 77
11 11 17 19 27 30 30 26 61 94 97 100 100 98 100 97 100 99 91 99 88 66 56 49 45 39 33 28 29 74 82 99 100 100 95 80 77 85 97 94 84 79 83
15 18 21 20 20 34 27 39 52 69 95 98 84 90 92 100 100 98 90 64 55 49 40 34 32 37 40 49 48 56 84 78 100 90 80 95 97 85 49 27 37 11 8
22 24 23 20 13 15 23 42 66 66 38 71 85 98 92 92 100 100 96 76 59 56 57 60 63 52 48 89 100 100 99 98 90 85 65 25 11 7 4 4 4 4 4
26 30 30 30 23 25 39 52 65 64 88 94 88 93 100 100 100 100 99 84 64 54 53 55 66 87 95 77 100 99 81 28 15 8 5 4 5 4 5 5 5 4 4
30 30 34 40 41 39 39 56 69 84 89 99 99 97 97 98 96 81 72 70 69 96 83 74 87 96 98 76 27 12 8 6 5 5 5 4 4 5 5 6 6 7 7
24 30 32 45 51 56 62 70 71 71 91 98 100 100 100 100 100 91 85 87 99 98 92 76 66 40 18 10 8 8 8 6 6 6 5 6 6 7 8 9 10 11 10
26 29 30 36 41 50 58 72 72 78 87 88 88 99 100 100 98 98 87 55 38 26 21 19 15 11 10 9 9 7 6 5 4 6 6 8 8 11 15 18 18 18 17
25 25 29 33 37 38 38 36 38 36 36 36 35 35 34 33 32 30 27 25 23 22 22 19 15 10 8 8 6 5 6 8 9 10 10 11 11 11 21 32 31 28 25

GFSMA_500_rhum_057.txt.gz
RH
15 10 8 8 9 18 38 28 16 8 6 5 8 10 16 18 8 5 5 6 9 8 7 10 16 18 21 26 30 25 26 17 15 14 14 17 23 32 38 38 37 38 42
5 5 6 9 9 9 12 37 37 48 44 18 9 12 15 18 31 25 8 6 10 11 8 10 16 19 22 28 26 27 26 19 16 15 14 14 15 17 23 33 36 38 40
10 11 10 10 9 10 12 17 20 24 33 50 68 38 21 24 22 28 33 11 7 14 12 13 16 18 22 29 24 27 25 20 19 20 21 19 17 16 16 19 29 34 36
12 9 12 11 13 15 14 16 15 14 15 18 27 37 50 59 42 36 42 41 13 10 17 18 23 23 21 25 24 25 21 20 20 20 24 24 25 25 20 17 19 20 23
8 12 17 12 14 14 12 14 17 20 16 16 17 15 16 34 54 58 56 51 59 25 13 22 28 34 33 28 27 25 22 19 20 20 21 26 27 28 28 29 27 21 19
8 17 24 32 20 23 22 22 25 28 30 21 18 14 11 15 32 45 52 62 65 66 41 18 31 42 49 50 51 46 35 27 23 23 24 25 31 35 34 32 29 33 33
18 25 35 31 29 30 29 31 31 36 42 55 50 35 30 32 29 23 34 57 71 68 72 60 29 42 58 64 79 96 86 50 45 48 37 34 38 42 49 52 51 40 33
15 22 32 21 26 32 41 50 53 59 68 74 80 83 69 63 70 80 68 61 60 70 76 84 85 60 58 74 86 96 98 92 82 89 83 64 57 72 77 76 73 71 73
7 6 9 16 21 29 40 42 45 55 71 77 77 78 66 73 80 88 84 76 78 87 83 87 92 100 92 78 83 93 96 94 98 95 91 93 82 88 84 80 70 51 65
8 7 8 11 12 24 26 25 34 41 42 42 52 56 75 70 62 68 88 97 90 87 99 97 98 96 96 98 90 86 97 98 98 98 97 98 99 96 92 85 56 32 54
11 12 12 12 10 10 9 11 23 26 32 30 33 43 50 53 68 79 90 98 99 96 87 96 97 98 98 97 98 98 96 97 97 98 96 94 96 90 81 74 54 41 46
14 10 10 10 12 12 11 13 16 18 23 25 27 37 56 73 79 66 71 82 96 96 97 89 97 98 94 96 92 97 97 98 98 98 98 98 96 97 92 83 67 56 63
12 11 9 9 10 12 12 10 8 9 11 18 22 28 36 48 75 97 76 61 80 99 98 97 96 97 96 87 97 90 92 97 95 98 98 96 91 99 99 96 94 90 83
10 9 8 8 9 10 8 9 12 14 20 21 25 35 53 69 86 81 97 98 79 77 93 97 97 95 96 97 98 95 98 93 98 97 98 97 98 98 97 91 98 97 81
9 10 9 8 10 9 10 12 14 17 20 20 23 24 29 43 89 100 99 99 99 93 70 90 96 99 90 95 98 98 98 98 98 98 98 98 98 99 98 96 69 69 69
10 8 7 8 10 10 12 11 9 12 18 13 19 31 35 48 48 76 98 98 97 94 90 60 68 90 90 86 79 100 98 95 98 98 98 93 96 92 95 88 66 92 84
8 7 8 8 10 10 12 9 7 9 11 24 39 58 78 88 69 72 100 98 92 99 98 73 61 78 98 79 98 89 96 100 99 97 88 58 51 62 53 43 40 41 53
8 9 11 11 14 15 15 9 9 14 16 25 34 58 70 99 100 95 83 96 98 100 80 98 98 99 99 99 98 99 92 87 64 40 31 29 63 76 81 88 87 87 67
12 12 14 15 14 19 20 12 15 17 18 28 39 56 45 84 97 100 97 80 72 98 99 95 99 100 98 97 77 62 54 35 32 44 52 64 70 84 97 92 89 78 81
18 20 19 17 20 23 23 18 19 24 29 32 43 53 38 55 82 86 78 81 64 56 84 99 99 90 67 50 45 45 57 61 55 74 98 95 96 73 40 40 50 37 20
20 23 23 23 22 21 25 28 29 35 37 36 44 51 37 46 72 71 95 93 100 74 94 99 85 61 50 58 60 77 64 84 99 92 75 44 16 12 7 6 5 4 4
22 28 27 24 16 19 30 34 38 44 38 38 52 52 63 74 82 88 82 78 100 100 100 99 89 84 90 97 92 88 94 98 42 17 10 8 10 9 9 8 7 8 9
28 28 22 16 17 26 35 39 37 34 48 49 57 63 67 83 91 97 98 100 100 100 100 96 93 97 88 64 34 23 19 14 12 11 10 10 9 7 6 5 6 5 5
29 22 19 18 22 24 29 27 26 26 23 36 52 67 72 78 85 93 89 85 76 70 53 38 26 23 22 21 20 19 17 15 13 11 9 7 6 6 6 6 8 8 8
27 23 20 19 20 19 19 19 21 22 22 24 26 27 29 30 30 29 30 30 29 28 27 26 27 26 25 21 16 14 12 12 10 7 5 8 9 11 13 13 13 13 12
31 25 21 21 20 20 21 21 21 22 24 26 28 30 30 30 31 32 32 33 34 33 32 31 30 24 17 15 15 15 11 8 7 8 11 14 14 16 18 24 26 25 25

GFSMA_500_rhum_060.txt.gz
RH
6 6 4 4 4 5 6 7 7 9 27 34 38 36 20 9 10 15 24 32 22 9 7 11 10 9 12 14 16 25 29 28 24 17 14 12 13 16 22 30 35 36 36
6 5 5 7 9 8 9 8 8 9 12 17 18 23 36 51 48 30 28 26 28 30 11 10 13 11 14 17 20 27 33 28 28 20 15 15 15 14 14 16 22 30 34
9 8 14 16 11 10 10 10 12 13 14 16 15 13 14 15 20 35 56 62 38 34 39 15 14 16 16 23 22 28 33 30 30 24 20 19 21 20 17 16 17 18 22
8 13 10 7 9 14 11 13 15 14 13 14 18 21 18 16 17 17 25 51 69 62 51 52 31 15 20 25 27 27 26 28 29 28 24 22 22 25 25 24 21 18 18
14 11 9 9 21 27 30 31 27 26 28 27 28 30 33 30 24 21 21 17 40 65 71 65 66 50 18 24 32 35 33 30 30 29 27 23 22 22 27 27 27 27 26
20 10 19 44 43 42 46 40 35 32 34 38 41 41 44 50 54 52 44 43 53 42 46 73 79 78 66 26 34 41 46 46 47 44 38 31 26 24 23 27 30 31 30
38 47 44 40 36 33 35 41 46 28 30 44 70 67 66 75 77 86 86 81 75 84 84 55 67 84 82 84 43 42 61 66 73 90 89 52 43 43 31 30 33 36 38
7 7 7 8 9 9 8 11 23 28 44 56 61 58 53 58 76 87 87 89 81 85 88 92 80 76 85 83 95 80 55 66 79 94 100 97 80 79 84 72 54 48 54
9 8 8 8 8 7 8 9 17 18 21 29 37 55 57 54 49 56 66 74 84 87 91 97 99 96 92 85 79 88 94 84 78 90 96 97 97 96 97 89 80 78 74
9 8 8 8 7 12 14 13 10 10 10 12 22 28 31 35 37 37 47 62 63 64 73 94 96 96 96 97 97 93 91 92 97 97 92 94 98 99 96 96 90 90 86
8 8 8 10 16 17 12 11 10 8 9 10 10 11 12 28 27 38 38 43 64 81 85 85 95 98 98 96 97 98 96 92 96 96 97 98 98 98 98 99 97 97 92
9 9 14 16 12 11 12 8 8 8 8 8 7 7 9 10 22 37 46 57 85 91 94 100 97 98 99 98 98 96 93 98 97 99 98 98 98 97 98 98 98 96 94
10 17 15 10 12 12 11 9 9 10 8 7 9 9 9 13 18 21 28 32 49 60 88 96 88 90 94 97 96 99 95 94 98 98 97 98 96 98 98 98 98 98 98
18 16 12 13 10 9 10 10 10 10 9 10 9 6 6 7 11 20 24 26 32 51 43 97 95 98 97 95 98 98 100 97 100 97 99 98 96 98 98 98 99 98 98
14 12 12 10 9 9 8 8 9 8 11 12 8 8 10 11 18 29 46 48 48 49 58 90 100 99 99 100 99 98 98 100 97 99 96 97 98 98 99 98 96 97 98
12 12 11 10 9 7 8 8 9 10 15 13 10 14 13 17 16 42 38 81 100 96 90 63 100 100 98 95 96 99 98 92 99 99 97 96 99 96 98 98 98 94 80
13 12 11 12 9 8 10 10 12 15 19 18 13 15 21 16 14 19 24 63 86 88 72 85 100 99 100 100 91 99 99 99 98 96 99 99 95 94 96 92 90 77 34
14 13 14 13 10 11 11 12 17 19 18 18 19 22 22 18 16 19 28 40 85 98 86 89 86 99 99 100 100 98 99 98 98 97 96 92 80 74 51 52 50 50 52
16 17 18 15 15 17 17 20 20 18 16 24 27 25 23 24 22 22 28 46 59 80 93 72 52 75 90 99 95 98 95 94 97 94 91 71 48 63 53 54 70 80 81
20 22 25 19 18 18 22 22 19 15 21 28 28 30 27 26 31 38 40 45 51 65 66 86 78 57 74 74 88 93 95 92 74 63 65 67 74 82 80 74 52 32 14
22 29 28 24 20 21 22 19 15 17 26 28 22 26 33 39 41 42 57 72 76 69 47 63 97 72 55 64 94 88 82 94 92 78 64 44 35 35 21 10 10 11 12
30 33 34 28 26 25 18 16 15 20 23 22 17 22 29 34 43 53 59 69 78 83 87 96 88 78 82 84 89 85 70 50 28 26 19 19 19 17 15 13 12 12 12
35 36 35 33 28 20 17 16 17 17 18 16 15 14 14 14 15 18 24 28 34 36 38 42 44 51 55 46 32 34 22 21 22 20 18 15 14 14 13 10 8 7 7
45 40 34 30 24 20 18 18 18 17 16 16 15 15 16 17 18 18 20 22 23 23 23 23 22 21 21 21 21 21 21 20 18 17 18 17 14 10 8 6 6 7 8
37 37 36 32 28 22 21 20 19 19 18 19 19 20 23 25 26 27 28 28 30 30 30 28 28 28 28 27 25 24 22 19 18 19 17 12 10 8 8 11 14 14 14
45 44 42 37 29 25 24 23 23 23 22 24 27 29 31 33 34 35 36 36 35 35 36 35 34 33 32 32 31 28 26 25 22 18 11 7 9 13 15 17 19 23 24

GFSMA_500_rhum_063.txt.gz
RH
5 5 6 6 5 6 10 11 9 8 9 9 8 9 11 13 15 20 28 41 40 27 24 26 28 11 14 14 15 20 21 23 27 30 26 21 17 14 13 14 16 23 32
8 12 10 9 9 13 13 8 7 8 8 10 12 13 14 15 16 16 18 24 30 41 50 47 34 34 19 15 16 19 23 24 32 33 29 26 21 18 16 15 14 14 22
13 17 21 10 10 12 8 7 11 11 12 14 16 17 17 16 17 19 21 20 20 23 33 59 62 50 49 27 16 20 25 29 30 35 36 34 28 24 22 21 17 16 16
8 16 9 8 15 11 8 9 20 25 31 34 32 28 27 27 29 30 32 36 39 38 36 26 32 65 63 60 37 22 27 34 35 38 36 39 35 28 27 25 24 22 19
9 9 13 23 18 9 17 40 46 43 44 44 38 34 34 36 40 41 57 72 74 75 73 63 56 45 52 71 72 64 30 31 39 41 41 40 38 34 28 28 26 27 26
16 30 38 31 29 50 59 46 42 28 26 33 39 30 31 37 46 58 60 69 87 97 98 98 97 92 86 54 62 77 75 49 32 38 42 43 41 39 38 27 27 25 28
22 42 37 34 38 39 10 9 9 8 8 7 9 24 35 41 30 45 63 81 77 94 99 100 98 95 94 93 88 65 76 78 76 41 40 58 63 68 77 53 40 31 26
16 14 13 10 8 8 9 9 9 8 7 10 14 15 14 19 31 40 45 51 52 48 56 66 67 70 88 92 97 94 72 78 85 84 76 49 62 74 96 96 87 61 65
12 10 10 10 9 9 8 9 8 9 14 16 12 11 11 9 8 11 11 12 28 38 51 63 70 83 93 95 95 97 99 89 85 84 85 95 90 87 96 97 98 98 98
13 10 10 11 9 9 8 8 12 16 14 11 11 10 9 8 7 6 7 8 10 33 49 61 64 66 82 100 99 99 98 97 96 93 98 99 98 98 98 97 94 98 99
10 10 10 10 10 10 8 10 18 12 12 10 9 8 9 7 7 9 8 7 9 10 42 41 54 74 82 80 98 95 87 98 97 98 91 97 98 98 99 98 99 98 98
11 12 12 13 11 9 11 18 13 14 10 8 9 9 7 8 11 8 8 7 6 7 8 13 17 26 52 71 96 89 98 99 96 98 94 97 98 98 98 98 97 98 98
19 16 15 11 9 14 17 12 13 10 8 8 7 7 7 11 13 10 10 9 9 9 12 19 36 55 76 48 73 100 98 98 91 98 98 99 99 96 98 98 97 96 98
19 17 14 11 15 15 11 12 11 10 9 6 7 8 10 15 15 12 12 14 12 11 13 22 48 70 76 84 60 71 82 83 98 97 98 98 98 98 96 97 97 96 99
23 16 12 13 16 13 13 12 11 10 8 8 9 11 16 17 17 14 16 19 16 14 16 19 42 72 93 83 70 98 100 100 100 96 97 99 99 95 92 98 97 97 97
20 12 16 15 13 13 14 12 12 10 8 10 12 17 17 15 18 18 20 21 19 18 20 21 44 77 84 91 84 98 98 100 100 99 100 99 98 94 97 99 94 90 90
13 17 14 13 14 15 14 14 13 11 13 13 19 18 16 18 24 24 25 20 18 19 23 20 35 63 84 91 91 97 100 100 100 99 98 98 95 98 99 98 97 94 96
15 13 14 15 16 15 16 16 15 15 17 20 18 16 14 22 26 23 25 22 20 21 31 26 35 49 71 85 62 76 98 100 94 100 100 97 89 93 100 98 95 89 77
13 15 16 18 18 17 19 21 18 17 18 19 17 15 16 25 21 22 24 24 30 28 37 57 53 48 54 56 42 40 42 80 74 78 85 80 80 67 67 67 67 72 78
18 20 22 22 21 19 23 26 22 20 21 17 15 14 20 20 16 16 19 21 25 32 42 56 70 80 80 61 58 66 50 57 55 68 63 79 93 83 71 58 50 36 33
27 26 27 25 21 25 30 32 27 26 19 17 14 17 16 14 12 11 10 11 12 14 18 30 55 66 79 75 77 85 81 81 81 74 66 48 39 33 22 20 20 19 17
31 22 18 26 33 32 33 34 29 21 18 16 16 16 15 13 13 13 14 15 16 18 18 18 17 19 22 24 27 31 29 25 24 25 26 26 22 20 18 16 17 18 16
30 35 38 40 41 40 34 30 25 21 18 17 17 17 16 15 16 18 20 21 22 23 23 24 24 23 23 23 23 23 23 25 26 26 26 24 20 18 20 20 19 17 13
32 44 48 43 38 36 35 31 26 22 20 20 20 19 20 21 23 24 27 28 28 29 29 28 29 30 29 28 27 26 27 28 28 27 27 28 26 25 22 18 16 13 9
54 58 46 42 41 40 38 34 27 24 23 23 24 23 26 29 32 32 31 30 30 31 31 32 32 34 34 34 34 34 34 34 34 34 34 32 28 27 24 18 12 11 8
55 51 49 48 46 44 43 38 32 29 29 30 31 32 34 36 37 38 38 38 38 37 36 35 36 36 35 35 36 38 39 39 38 38 38 34 32 27 18 9 10 11 11

GFSMA_500_rhum_069.txt.gz
RH
7 7 7 8 9 9 11 14 13 7 12 11 7 7 16 22 29 33 38 37 34 30 29 31 35 37 39 47 45 44 29 27 46 45 21 17 22 26 31 37 34 25 20
9 8 9 11 10 9 9 11 8 11 17 13 11 27 39 40 36 32 28 29 38 33 24 30 38 46 51 54 68 74 72 75 56 34 51 40 20 26 31 33 36 33 28
11 9 11 13 14 15 10 9 10 22 24 19 36 42 33 22 21 10 8 7 8 14 25 32 36 29 35 50 70 87 86 95 93 85 55 52 57 29 36 42 41 40 38
12 11 15 16 14 13 12 12 18 30 34 34 34 32 11 8 8 8 8 8 10 18 18 18 21 25 30 42 54 60 69 73 70 77 91 87 63 64 46 36 48 50 49
14 13 13 12 12 12 15 16 16 23 20 20 31 12 9 8 8 8 8 12 15 14 13 12 10 13 10 12 14 20 24 37 60 59 66 69 88 80 76 61 39 48 52
16 15 13 13 13 13 15 13 13 14 16 12 10 9 9 9 9 8 12 15 13 12 11 9 9 8 7 8 9 9 10 11 25 57 59 65 73 93 94 86 85 50 48
19 16 19 18 15 14 14 14 14 12 12 10 11 12 10 10 10 11 15 12 12 12 9 9 7 8 10 10 9 10 8 8 11 40 54 69 78 81 88 99 97 97 82
21 18 16 16 15 16 16 16 15 14 12 11 11 14 16 12 11 14 13 13 12 10 9 8 8 11 12 11 12 9 8 9 10 13 18 43 57 67 88 85 97 98 97
20 19 18 18 17 18 18 19 19 14 12 11 11 16 16 12 13 14 13 12 10 10 9 8 9 13 13 13 12 12 13 14 13 12 14 26 27 51 67 88 83 85 97
25 25 23 22 22 22 26 30 17 14 11 11 14 13 11 12 15 15 13 10 8 10 10 10 15 15 14 13 14 18 17 16 16 16 15 31 64 65 69 96 75 89 95
33 30 27 28 29 34 43 32 20 14 12 16 19 15 12 15 13 13 11 8 7 8 9 11 12 13 13 16 19 20 19 16 12 12 21 45 97 81 100 79 100 98 99
37 36 34 36 45 51 41 33 17 14 20 20 20 13 14 14 13 12 10 8 8 8 10 13 12 12 14 19 20 18 17 15 17 25 35 48 55 73 86 100 97 95 100
50 45 46 53 57 53 34 16 16 33 38 33 21 15 14 13 13 12 11 10 9 10 14 14 13 12 16 19 19 18 17 19 25 49 55 58 76 82 82 98 100 92 98
56 55 54 43 28 16 14 23 39 44 38 22 15 14 13 15 14 13 13 12 11 14 14 14 14 13 16 16 16 14 19 26 48 60 59 88 91 99 89 84 97 99 98
58 52 33 16 15 16 27 34 40 42 20 15 13 13 16 16 16 15 15 15 16 14 14 14 13 14 14 11 9 10 17 27 53 62 82 100 100 53 60 76 65 93 97
39 25 23 21 21 23 29 39 39 18 16 14 15 18 19 20 20 19 18 18 18 16 14 13 12 11 10 9 8 9 14 36 61 58 88 95 100 89 89 95 100 97 94
42 36 25 26 35 37 43 26 15 17 14 16 20 21 22 24 27 25 23 23 18 16 14 13 11 10 10 10 10 10 13 20 32 34 68 77 90 100 98 99 99 98 96
34 29 29 37 41 38 17 18 16 14 17 22 26 24 27 27 32 28 26 21 17 14 14 12 11 11 12 12 11 11 12 24 35 38 42 56 69 96 100 95 98 99 100
32 35 43 48 25 18 18 15 15 20 26 28 28 26 30 35 33 31 21 18 16 15 14 12 12 14 13 13 14 14 13 15 16 26 55 64 68 73 66 72 82 84 82
42 51 37 22 21 17 16 20 24 28 32 30 31 35 35 35 30 23 20 17 16 16 14 14 16 17 16 18 19 19 18 18 19 20 20 21 21 26 38 51 60 68 70
39 28 24 20 16 18 24 27 34 28 26 37 41 40 35 31 27 23 19 18 18 17 16 18 20 22 23 24 24 24 23 23 24 25 26 26 24 24 26 26 25 25 25
38 33 17 18 21 34 35 30 28 40 44 45 40 37 36 32 27 23 21 21 20 21 23 26 27 28 29 30 31 30 29 28 28 28 27 26 27 26 28 30 30 30 31
43 51 33 31 35 31 32 41 43 44 43 43 42 39 36 31 26 25 25 25 25 28 30 33 34 35 39 40 39 38 38 36 34 33 32 29 29 29 32 32 32 32 33
33 28 28 27 36 43 46 49 50 50 49 47 46 44 42 38 32 30 32 34 35 36 40 41 44 50 47 45 43 42 41 39 38 37 36 33 30 28 28 28 29 33 34
33 35 42 46 50 56 55 52 51 51 54 56 59 61 62 62 61 57 54 54 54 56 59 65 68 65 56 52 49 46 45 44 41 40 38 36 33 31 30 29 30 30 31
48 48 54 63 62 55 55 51 51 51 54 61 65 66 65 64 67 72 77 82 81 80 74 71 71 69 66 65 62 57 53 47 44 44 44 44 41 38 38 38 38 39 40

GFSMA_500_rhum_072.txt.gz
RH
11 10 9 8 8 11 11 11 11 9 8 10 16 19 14 26 42 37 21 17 10 8 8 8 9 19 24 28 28 26 36 41 60 62 65 72 58 43 44 29 28 40 45
18 15 11 10 10 12 14 15 14 10 10 14 23 26 29 34 35 19 8 8 8 8 8 8 14 18 17 18 19 22 22 36 44 40 58 72 76 75 54 51 41 34 43
24 19 14 13 14 15 16 14 14 12 14 18 21 30 26 32 30 10 9 8 8 8 9 14 16 13 13 12 10 12 15 14 16 18 40 42 59 72 84 72 61 51 41
27 23 19 17 16 15 15 13 13 14 17 16 15 16 16 14 10 11 9 10 10 10 12 15 13 13 11 8 8 6 8 9 9 9 13 21 38 56 69 73 85 74 61
31 27 22 20 20 16 14 14 14 14 14 13 14 13 12 10 10 13 11 13 12 11 14 14 13 12 9 7 6 8 9 9 10 10 10 11 20 40 61 65 71 89 88
35 30 30 24 20 18 18 18 16 15 15 15 15 15 14 12 11 12 14 13 12 13 14 13 12 9 8 6 6 8 10 10 11 11 9 8 9 18 42 64 78 86 97
33 28 24 22 22 19 18 18 16 16 16 17 19 21 15 12 12 13 15 13 13 14 14 13 10 9 7 7 7 10 11 12 12 11 12 12 12 11 14 33 50 71 89
35 32 28 24 22 20 19 18 18 19 19 21 28 27 15 13 12 13 14 13 14 14 13 11 9 7 7 8 10 12 10 11 13 15 17 18 23 19 16 14 16 33 50
37 35 31 27 24 22 20 20 21 22 25 30 38 26 17 13 14 18 13 14 13 14 13 10 7 7 8 9 12 12 11 12 17 19 20 19 26 29 38 37 29 25 52
40 37 33 29 28 27 26 25 27 29 34 47 29 21 15 17 23 25 19 14 14 14 12 9 8 9 10 12 13 12 13 18 18 17 16 19 24 33 39 42 46 50 100
41 38 37 36 34 32 32 33 34 38 52 52 43 21 20 34 34 28 21 14 14 13 11 9 9 10 13 15 14 14 14 15 15 14 15 18 22 38 54 100 60 99 99
52 52 52 48 43 42 42 42 44 53 55 34 14 30 38 40 35 21 14 13 14 13 11 11 12 13 15 14 13 14 12 9 10 7 10 24 26 37 49 76 88 74 94
63 62 57 52 54 56 54 52 54 33 16 15 26 37 34 35 27 15 13 15 15 14 14 15 17 17 15 14 13 12 8 7 6 7 13 29 31 49 49 62 91 85 66
66 61 59 60 62 61 61 51 28 15 16 20 33 31 36 25 15 14 16 17 16 16 17 17 21 17 15 15 13 10 7 6 7 8 24 43 45 62 64 71 89 87 91
65 64 65 65 62 58 48 26 18 19 26 28 36 39 19 15 14 16 18 18 19 20 22 22 20 17 16 13 12 9 7 7 8 9 27 44 41 62 92 87 92 91 98
58 57 56 56 57 40 29 25 26 28 34 40 29 16 16 15 18 20 21 22 26 26 24 23 20 16 14 13 11 8 9 10 10 10 20 28 39 43 70 96 73 90 98
58 56 57 60 52 47 32 30 30 37 42 22 17 16 15 19 23 24 24 25 27 30 28 22 18 15 13 11 11 10 10 12 12 12 10 16 33 38 55 61 91 100 99
56 53 51 48 35 34 33 33 43 42 22 17 16 16 21 27 28 28 28 30 32 31 22 18 16 15 13 12 13 13 13 14 15 15 14 14 14 22 45 57 72 88 100
65 52 38 33 32 32 32 46 34 21 18 16 20 27 30 31 30 33 34 34 30 23 20 18 16 15 14 15 16 17 18 18 19 18 18 19 18 18 18 20 40 65 81
54 38 32 31 36 45 44 29 22 17 19 26 32 32 25 28 38 39 36 31 28 23 20 19 18 17 17 20 22 22 23 24 24 24 24 24 24 23 22 21 22 24 22
52 50 46 49 60 42 36 49 31 28 37 32 29 32 38 41 39 38 35 32 27 23 22 22 21 22 25 28 28 29 31 32 34 34 33 32 30 29 29 27 25 23 23
64 80 88 59 65 44 28 53 62 37 34 29 38 42 41 44 44 42 36 31 26 25 25 26 27 29 32 34 34 40 44 42 42 42 39 38 36 35 34 32 30 28 26
94 92 86 91 73 61 66 52 38 35 48 45 44 49 48 44 44 44 44 42 38 35 34 35 38 40 43 45 53 61 58 50 48 46 43 40 39 39 38 37 35 32 30
74 79 88 93 85 43 34 37 48 51 48 50 51 45 44 48 54 58 58 60 59 62 65 68 71 73 72 69 65 65 64 62 61 58 54 50 45 42 41 39 37 36 34
72 67 52 45 45 44 54 61 55 53 53 53 43 45 51 56 56 56 59 61 60 60 64 65 65 67 71 74 73 74 73 72 68 63 59 54 48 46 47 47 47 46 43
45 43 51 60 64 68 67 59 57 56 54 48 50 54 54 48 49 50 51 54 55 60 63 63 64 67 69 74 76 74 73 71 67 65 57 52 47 46 45 48 57 56 52

GFSMA_500_rhum_075.txt.gz
RH
20 16 14 12 10 9 11 13 15 17 16 13 12 14 17 22 27 25 25 28 13 12 10 12 14 11 12 15 14 14 13 10 8 8 11 18 16 31 55 74 75 61 50
25 22 20 17 13 12 13 14 17 16 15 14 14 17 17 17 17 16 15 11 12 14 13 17 17 13 14 15 14 12 8 7 7 7 8 9 10 17 26 41 67 85 75
29 28 24 21 18 16 15 15 15 15 14 14 15 16 15 14 14 13 12 10 11 15 18 18 18 13 14 14 13 10 8 6 6 8 9 8 8 10 12 21 43 63 78
44 36 30 27 23 19 17 17 16 14 14 15 15 16 16 16 16 17 17 12 11 14 18 19 18 14 14 14 12 9 7 6 8 9 10 10 11 11 9 11 17 36 62
49 42 36 34 32 24 26 19 17 16 20 19 17 16 17 18 20 26 20 13 11 14 20 22 16 15 15 14 11 8 6 6 8 12 11 10 11 11 10 9 10 17 38
53 46 42 37 33 28 24 22 20 20 18 18 18 18 19 20 27 33 20 14 13 16 22 20 19 15 14 14 10 6 6 7 8 10 10 11 12 13 14 14 13 11 16
56 48 43 39 35 31 29 26 25 25 22 20 23 23 24 26 34 38 23 17 14 20 23 22 21 15 14 11 8 6 6 7 9 11 10 10 14 17 19 19 22 20 13
53 48 44 41 39 37 33 36 30 28 26 24 27 31 31 36 46 36 19 16 19 26 26 25 19 14 13 10 7 7 7 7 11 12 12 14 19 26 28 33 38 34 28
51 49 46 43 40 38 36 33 30 34 35 30 30 35 40 48 52 43 20 24 32 32 26 20 14 14 12 10 8 8 8 10 13 12 13 14 16 13 22 32 40 43 41
51 50 49 47 46 46 40 37 39 38 38 35 42 41 48 53 47 31 28 37 35 29 19 14 14 14 12 11 10 10 11 14 13 12 11 9 9 7 15 38 55 47 59
56 58 61 59 55 50 42 43 45 42 39 49 49 50 50 32 20 23 26 31 30 25 15 14 15 14 13 12 14 14 16 14 13 11 7 6 6 8 17 25 44 67 53
63 68 74 65 58 49 51 53 52 46 51 59 56 56 36 19 17 28 29 31 30 19 14 16 17 15 14 15 16 18 16 15 12 9 6 6 6 14 20 33 44 56 86
75 76 75 70 60 61 62 60 58 59 64 64 55 31 18 18 20 25 30 33 19 15 16 18 18 17 18 19 20 18 16 14 11 7 6 7 9 19 33 33 51 62 62
82 78 73 68 69 69 67 65 68 66 62 57 30 20 19 22 28 34 34 18 15 16 18 20 20 22 25 24 22 19 16 13 10 7 8 8 9 18 32 31 48 71 81
80 79 78 76 73 70 68 63 58 57 55 30 26 26 28 30 36 32 17 15 16 18 22 23 25 25 25 26 22 17 14 12 9 8 10 10 9 10 14 24 40 76 78
84 79 73 67 66 62 60 58 59 56 44 38 34 32 32 37 29 18 16 17 22 24 24 26 26 31 30 23 18 16 13 11 10 10 12 12 12 13 12 13 20 57 94
70 70 69 72 68 64 60 56 58 55 44 38 33 27 39 27 17 16 22 27 29 28 25 28 32 29 22 19 16 15 13 12 12 12 14 15 16 16 16 15 14 20 44
75 74 74 74 71 65 58 53 44 37 33 28 32 42 29 18 17 25 28 30 30 24 34 34 30 24 20 18 16 15 14 16 16 17 18 19 19 20 21 20 19 16 20
67 65 68 72 74 73 62 43 37 32 31 42 40 23 18 19 29 33 27 24 34 39 36 33 28 24 20 19 18 17 18 21 23 22 24 25 25 26 27 27 27 25 22
78 80 79 76 67 54 45 40 37 40 49 32 23 37 34 38 34 27 34 40 39 38 36 32 27 24 22 22 21 22 26 28 30 32 36 35 34 35 34 32 32 32 30
90 87 79 67 51 46 51 51 51 68 55 79 62 52 64 36 37 41 40 45 45 42 38 36 30 26 26 28 29 31 33 34 40 50 54 50 46 43 40 37 36 34 35
95 84 74 68 62 62 70 82 48 61 53 55 65 44 37 43 42 46 46 42 40 42 44 46 47 46 45 44 46 48 54 61 63 63 57 55 54 52 50 47 44 41 39
98 97 92 81 86 92 92 92 90 82 74 88 53 50 54 46 50 46 40 41 47 51 48 49 53 51 56 58 56 61 64 63 64 64 65 64 64 60 56 54 50 46 42
99 99 98 99 97 88 95 97 90 93 71 47 60 55 50 52 48 42 44 46 48 47 44 50 49 54 60 61 62 63 64 66 66 66 67 66 63 58 56 52 47 43 41
96 99 100 100 97 94 92 70 62 56 70 74 54 53 54 52 45 44 45 41 41 42 45 48 46 49 53 51 53 54 56 57 54 54 52 53 52 51 50 50 51 51 53
99 81 76 81 69 65 70 76 77 85 73 56 56 58 61 53 45 45 41 40 39 47 45 44 41 45 50 51 49 47 44 41 38 40 41 45 46 48 44 28 14 10 9

GFSMA_500_rhum_078.txt.gz
RH
29 26 21 17 16 14 12 12 13 15 18 18 17 16 17 18 18 17 18 17 19 22 14 11 14 19 22 22 19 16 14 14 12 8 6 5 6 7 8 8 10 15 25
34 31 25 22 21 21 18 17 15 16 17 17 17 17 19 18 20 19 19 19 26 33 23 13 12 18 23 23 19 15 15 14 10 7 5 6 8 8 8 8 10 10 13
41 39 30 29 28 26 24 20 19 18 19 19 19 22 22 21 21 21 20 22 29 36 23 14 12 18 23 24 20 15 14 12 9 6 6 6 9 10 10 10 11 10 9
44 49 43 45 38 32 30 29 24 27 22 21 23 25 23 23 22 22 24 26 33 43 23 16 16 20 25 24 20 16 14 10 8 6 6 7 10 11 10 11 11 11 10
44 52 56 52 46 42 38 35 30 27 27 28 30 27 26 25 28 28 31 34 44 45 31 28 20 25 28 26 24 15 14 11 7 7 8 9 11 11 10 11 12 14 16
49 61 64 62 55 48 43 38 34 34 33 34 34 31 32 33 30 34 33 42 48 48 39 34 25 30 29 29 25 15 14 10 7 7 8 9 12 11 11 13 19 23 24
46 59 70 66 59 50 46 43 43 41 41 40 39 39 39 38 39 40 41 49 49 46 34 28 30 28 28 30 19 14 14 11 8 8 10 13 13 12 15 28 23 25 24
56 56 50 61 56 52 49 46 45 43 45 41 41 46 48 41 42 47 50 50 44 30 31 30 26 26 28 30 16 14 13 11 10 9 10 16 14 16 32 23 22 20 31
77 63 58 57 52 49 51 50 51 54 53 46 45 52 52 49 52 55 54 42 24 28 25 28 22 28 30 18 14 15 13 12 12 13 15 15 14 11 8 11 19 38 51
76 70 61 54 50 51 54 60 62 64 59 50 54 56 57 54 58 57 51 38 22 18 22 26 31 30 20 14 16 15 14 15 15 16 17 15 13 8 6 6 8 21 61
78 70 63 59 56 56 59 62 67 67 61 58 61 60 58 61 62 53 46 25 19 21 26 33 33 20 15 17 18 16 16 17 19 18 16 15 10 6 6 7 14 21 36
65 64 63 60 57 57 61 68 71 70 63 65 67 64 63 64 58 44 34 23 24 30 34 34 18 16 16 19 19 20 22 24 23 19 17 13 9 6 8 8 22 28 34
70 75 70 68 66 70 75 78 75 68 67 70 68 67 62 57 52 36 25 30 33 34 33 22 16 18 20 22 22 24 25 25 23 18 15 11 7 8 8 10 13 19 27
79 82 83 80 77 77 79 77 75 74 76 69 66 57 56 55 32 31 36 37 35 33 22 17 19 21 23 24 25 24 29 26 19 16 13 11 9 10 9 10 10 11 20
88 88 90 84 82 82 81 82 82 74 66 63 59 59 58 44 41 40 37 32 36 26 16 20 24 25 28 30 26 29 25 20 17 14 12 11 11 12 12 13 14 14 17
94 94 94 93 90 93 91 82 73 71 68 65 59 58 56 49 41 34 30 37 26 17 20 25 29 38 30 29 30 27 22 18 16 14 12 14 13 14 15 16 17 17 16
93 97 100 94 80 74 76 75 76 72 72 64 56 51 44 39 31 34 41 26 19 22 31 30 34 30 34 33 30 26 21 18 16 14 16 18 18 18 20 20 21 23 22
98 95 88 78 75 78 77 71 69 72 73 73 56 46 40 35 37 43 28 20 26 34 31 34 36 36 35 32 27 24 22 19 18 17 19 22 23 24 26 27 28 30 29
95 94 90 87 87 80 74 70 71 74 71 50 44 36 36 45 43 25 32 37 39 40 40 38 39 40 37 34 31 26 23 22 22 23 25 28 31 38 40 38 39 37 34
96 97 96 93 89 84 81 77 77 62 45 47 45 47 51 54 47 64 54 73 41 44 39 43 44 40 38 36 31 30 28 29 30 32 32 35 49 58 58 52 48 45 42
94 95 100 98 93 90 89 76 54 49 45 50 54 63 60 64 76 72 49 44 44 43 45 42 41 41 43 45 42 47 50 51 54 56 58 64 59 56 56 56 56 53 50
85 87 92 97 99 98 96 96 88 83 63 59 73 60 59 62 85 65 84 48 46 46 39 42 44 43 42 41 43 47 50 53 54 56 59 63 63 61 60 60 58 56 54
84 87 93 94 88 91 94 88 70 72 81 89 96 92 92 92 65 79 51 49 50 46 39 45 44 41 37 34 36 42 47 47 49 51 53 56 58 59 57 55 52 47 38
83 80 84 88 94 100 99 99 99 98 97 98 98 100 92 87 84 58 52 55 54 46 44 36 32 33 30 33 35 38 42 44 45 43 44 42 40 39 39 39 36 36 36
88 90 89 91 97 98 100 100 100 97 98 97 93 93 97 94 64 57 58 60 56 50 38 33 33 35 36 40 44 47 47 44 41 42 40 39 39 39 40 41 42 35 18
96 100 98 98 96 87 94 97 98 98 99 100 99 100 94 77 66 65 66 66 61 48 45 43 41 44 48 50 49 48 47 48 46 48 46 46 43 44 44 32 14 13 15

GFSMA_500_rhum_081.txt.gz
RH
31 30 27 22 18 16 16 15 15 14 15 17 20 20 21 23 26 27 29 33 34 32 32 36 43 27 17 16 22 25 25 23 17 15 13 10 6 5 6 8 9 9 9
34 35 34 30 25 22 22 22 21 20 19 19 22 22 23 27 31 31 30 33 34 37 38 42 44 35 28 21 23 25 24 25 19 15 12 9 6 6 7 8 10 10 10
36 39 40 40 33 30 32 30 30 29 28 28 28 25 28 30 33 34 36 37 34 36 40 45 44 41 39 23 26 28 28 24 16 15 13 8 7 7 8 10 11 10 10
34 37 39 42 45 46 47 42 40 39 36 33 32 33 34 34 36 37 39 39 40 42 43 49 46 44 37 27 31 29 30 24 15 14 12 9 7 7 9 11 12 11 11
28 37 41 44 56 60 60 53 48 44 41 39 40 40 41 39 39 42 43 42 44 46 49 48 45 38 30 31 27 27 28 21 15 14 12 8 8 8 9 10 12 12 16
21 34 43 49 64 68 67 64 54 49 46 46 45 44 45 44 46 48 47 46 47 50 49 44 39 32 29 27 23 29 30 20 14 14 11 9 9 9 10 12 12 15 29
25 35 44 53 56 65 60 59 56 51 49 47 46 46 51 50 49 50 51 49 53 52 50 42 35 25 23 26 29 34 27 16 15 14 12 11 12 12 14 14 14 28 27
47 41 51 50 49 44 41 47 52 49 46 48 44 46 48 50 51 54 56 55 56 54 49 40 27 20 27 30 36 34 20 15 15 15 13 14 16 18 17 17 25 23 17
96 89 73 67 56 58 57 53 50 44 44 55 49 47 44 50 54 57 58 58 58 54 44 35 25 26 32 34 35 22 15 16 17 16 16 17 18 19 17 15 12 17 28
93 90 85 75 70 66 69 60 53 49 49 54 53 46 48 49 52 56 62 60 54 48 42 29 29 34 35 35 29 16 16 18 18 18 19 22 22 19 17 14 8 6 8
95 94 86 81 76 74 68 61 54 49 49 51 49 59 61 59 61 55 54 64 50 46 40 34 37 35 35 31 18 17 19 20 21 23 23 22 22 19 15 10 7 8 10
90 93 90 79 70 59 52 49 48 45 48 55 62 68 67 69 70 64 57 52 52 44 40 40 36 35 34 24 17 19 22 24 27 24 24 26 20 17 12 8 8 8 10
61 72 61 58 64 65 61 58 59 64 69 71 76 76 76 73 65 59 55 53 49 45 43 36 35 36 28 17 19 24 28 34 26 28 25 20 18 14 12 9 10 9 10
68 78 84 80 75 66 61 64 69 71 76 80 83 80 78 65 62 60 56 56 52 46 40 34 37 33 19 20 26 39 36 28 29 26 22 18 15 12 11 11 12 12 14
98 94 94 94 91 89 84 85 84 83 85 87 89 78 67 65 64 57 54 52 48 43 36 38 34 24 22 29 41 34 31 31 29 25 21 16 14 12 13 14 14 14 16
98 90 92 79 84 88 86 84 83 85 87 78 72 71 70 68 64 60 58 55 46 38 41 38 25 23 32 40 38 30 32 31 27 22 18 16 14 14 16 17 19 19 19
93 96 91 90 91 88 87 86 90 90 75 67 70 69 65 64 70 62 53 45 39 40 42 24 25 33 40 44 32 33 33 33 31 25 19 18 17 18 20 22 25 27 28
96 92 94 90 85 77 86 90 95 86 75 72 71 69 65 72 65 50 46 39 41 45 28 36 37 55 50 35 35 38 36 34 27 23 22 22 22 26 27 28 35 38 38
79 75 72 69 71 77 82 90 89 86 86 80 72 72 75 71 47 45 45 49 45 39 49 63 68 46 39 41 41 38 35 33 34 32 29 29 29 31 34 46 52 56 56
100 99 94 94 84 77 79 82 80 86 85 80 79 76 66 46 48 49 55 55 63 62 79 52 55 42 45 38 40 39 37 40 39 40 47 48 48 51 56 60 59 57 55
60 66 69 67 78 87 89 91 100 94 91 89 82 57 49 51 58 61 88 79 64 68 55 59 45 48 39 39 40 36 37 39 37 34 49 48 50 53 55 56 57 57 58
64 67 62 61 67 76 83 90 87 96 94 98 97 91 92 96 92 75 78 78 96 95 82 48 50 47 44 42 42 39 35 34 37 34 40 43 44 44 46 47 48 50 51
73 74 74 76 75 83 92 98 96 96 98 100 97 90 100 100 95 99 99 98 96 98 63 53 51 52 51 45 39 30 33 34 35 38 41 42 42 39 38 38 36 34 32
72 76 76 79 86 88 90 91 91 89 96 100 96 96 98 97 99 98 98 96 98 73 62 61 59 57 43 38 33 31 34 38 41 41 41 40 40 38 40 38 38 37 36
88 91 88 88 88 89 91 96 100 100 100 100 100 100 100 100 99 100 100 100 87 90 75 68 65 50 44 41 37 38 43 47 47 39 43 45 45 44 44 45 45 44 42
91 89 88 93 100 100 100 99 95 92 98 100 98 100 99 100 100 100 100 98 89 84 80 76 67 54 49 49 47 47 52 54 52 50 51 54 57 59 57 54 51 48 32

GFSMA_500_rhum_084.txt.gz
RH
29 30 28 27 24 20 16 15 16 16 17 18 20 22 24 25 32 36 37 40 42 41 41 41 42 44 46 44 41 34 27 29 27 30 31 21 16 13 9 6 6 7 10
30 33 34 33 32 30 27 23 24 26 26 25 24 26 28 28 34 38 40 41 43 43 42 42 44 45 45 46 42 29 28 29 26 31 32 21 15 13 9 7 7 7 10
26 32 36 38 40 41 36 31 35 35 34 37 37 33 31 33 36 39 42 45 47 46 45 46 47 47 45 43 35 29 32 25 26 32 32 21 15 12 9 8 8 9 9
19 27 35 40 44 47 50 46 51 49 46 44 41 38 39 42 43 44 44 46 48 48 49 48 51 51 46 38 32 30 28 24 31 33 28 18 15 13 10 8 9 10 10
17 22 31 39 46 47 55 60 64 64 61 52 48 46 46 45 44 46 47 48 48 50 51 51 51 54 46 36 28 23 25 30 35 31 19 15 15 13 11 10 10 11 14
17 20 23 30 47 52 55 67 71 71 66 59 52 50 48 47 46 46 47 46 48 51 52 51 51 52 44 33 24 24 30 35 36 25 15 15 15 13 18 27 21 18 16
22 21 20 22 30 38 45 50 54 56 54 53 53 48 45 44 48 46 46 49 49 51 52 49 51 47 42 35 28 32 35 36 32 19 15 16 15 14 17 27 30 27 24
60 43 32 32 36 38 40 41 43 42 41 44 42 44 44 51 49 49 50 50 50 53 54 54 54 47 41 33 34 35 36 35 27 17 16 18 16 17 20 22 23 30 31
94 92 84 79 74 51 39 48 45 50 60 64 55 48 45 48 57 64 57 51 54 56 57 55 52 47 38 36 37 34 35 31 20 16 18 19 20 22 25 24 22 19 24
97 94 96 95 87 80 74 67 52 50 66 69 63 55 45 41 43 45 58 57 57 60 58 55 51 45 39 40 36 36 36 28 17 18 21 22 28 27 25 25 20 17 13
87 78 78 77 75 80 81 78 76 73 69 67 57 48 43 40 42 41 52 72 67 61 55 52 49 43 43 38 36 37 31 19 18 22 25 40 32 25 27 22 18 15 10
90 75 61 55 59 72 77 75 69 58 47 40 40 52 55 52 55 60 60 64 65 60 56 52 50 45 43 38 39 36 24 19 24 32 45 28 24 26 21 19 15 12 9
71 74 68 67 60 45 50 46 46 54 57 59 55 57 58 60 69 76 74 72 63 60 56 52 48 48 42 40 42 34 21 23 39 44 27 28 27 23 19 16 13 11 11
74 69 82 89 78 70 62 57 59 61 62 63 71 70 73 76 82 82 76 68 65 60 53 51 52 47 41 42 40 28 24 34 45 31 30 28 27 22 18 14 12 12 13
96 97 97 97 97 95 89 85 87 82 74 69 69 76 76 84 87 77 70 70 67 61 58 56 49 43 42 43 35 25 32 48 35 30 30 29 24 19 16 14 14 15 15
97 97 98 98 93 97 96 83 82 77 73 72 70 74 78 84 79 69 69 65 62 64 62 50 48 42 43 38 28 33 49 43 33 31 32 32 30 20 16 16 18 18 20
100 98 95 95 93 94 96 84 75 78 82 75 72 72 81 83 78 75 68 65 64 66 57 48 44 44 37 31 36 50 54 36 37 34 35 29 23 21 20 20 22 24 25
99 95 98 90 88 88 80 80 80 73 63 69 70 75 77 71 77 80 73 71 71 64 53 47 48 52 34 43 58 57 39 40 40 36 32 31 29 28 27 26 27 29 36
95 86 90 89 89 83 88 82 66 67 59 58 60 64 72 73 78 77 79 75 68 56 59 58 55 54 56 82 53 43 44 40 38 36 38 36 37 38 39 39 38 37 45
62 72 78 71 68 66 68 71 68 64 55 63 72 77 82 88 88 81 83 85 58 70 86 62 82 76 81 56 54 46 44 41 40 35 32 31 34 34 36 39 42 44 49
21 24 28 32 39 40 38 38 49 49 53 72 85 96 100 100 99 87 76 60 63 72 74 95 91 88 62 73 55 48 47 46 37 36 34 30 33 34 34 34 36 39 44
27 26 30 40 42 42 44 54 54 58 60 72 82 92 100 98 98 98 100 94 96 96 99 98 98 97 93 71 64 51 53 51 43 34 30 32 32 32 33 37 36 34 39
45 46 49 55 58 60 60 59 60 66 72 78 81 78 87 96 87 97 99 98 99 96 100 100 98 98 89 77 61 53 53 43 38 34 30 34 35 32 32 34 32 32 36
55 60 65 68 68 68 75 76 78 80 82 87 96 96 90 100 100 100 100 100 100 100 100 99 100 100 99 81 68 56 46 45 42 38 38 40 38 33 35 38 40 39 39
66 73 81 79 75 76 76 79 80 89 94 97 98 95 98 100 100 100 100 100 100 100 100 100 100 100 100 84 68 58 55 51 46 48 50 46 45 43 46 46 47 47 47
78 75 77 78 79 81 81 86 100 100 97 100 100 100 100 100 100 100 100 100 100 100 100 100 100 100 98 88 77 67 65 63 60 57 58 58 57 58 57 54 53 51 53

GFSMA_500_rhum_087.txt.gz
RH
26 28 29 27 25 24 22 20 17 17 19 19 20 23 25 27 29 31 38 40 42 44 46 46 43 44 46 50 45 42 36 34 31 28 25 30 32 32 22 15 13 9 7
21 28 31 31 31 32 32 29 26 24 25 28 29 31 32 32 31 35 39 41 42 43 46 47 46 45 48 49 48 45 38 32 28 26 28 30 33 31 19 16 13 10 8
16 21 28 32 35 37 38 38 36 32 35 38 38 39 39 37 38 41 44 44 42 41 45 47 48 48 47 48 51 46 37 29 25 27 27 30 33 30 19 15 13 10 9
17 16 21 30 36 40 42 46 51 48 47 51 49 49 47 45 45 46 46 44 45 47 45 46 50 51 50 47 49 46 36 26 27 30 34 34 33 26 18 15 14 12 12
38 21 18 24 32 40 46 48 48 54 54 59 62 61 55 51 49 48 46 44 42 42 44 46 49 50 51 49 50 46 36 27 31 34 36 35 27 20 16 16 18 24 28
51 31 22 20 24 34 44 50 51 49 55 60 66 64 60 56 52 48 45 39 36 41 53 50 50 52 53 51 50 45 35 31 35 35 35 32 21 16 16 17 17 22 31
48 43 25 20 21 24 26 33 42 42 43 42 47 48 49 46 48 48 45 43 42 49 59 48 47 52 58 54 49 45 34 37 34 35 35 27 18 17 19 18 21 23 36
77 56 40 25 22 24 24 28 28 29 30 32 37 40 47 57 53 49 50 49 55 49 45 49 50 53 57 56 50 44 38 39 35 36 36 24 17 19 20 21 24 27 34
97 96 96 92 73 56 48 45 49 39 42 51 45 42 48 63 65 64 60 52 47 47 50 53 59 59 59 54 49 43 40 38 37 38 33 23 19 23 23 34 32 28 26
96 96 96 96 97 96 93 91 90 88 82 81 78 63 47 52 63 60 53 46 45 45 51 57 64 65 60 54 48 45 42 38 39 39 28 19 22 25 40 34 27 28 25
95 96 96 94 95 94 95 94 94 88 81 79 76 77 73 66 57 40 36 54 54 52 57 62 70 65 60 54 50 45 44 40 41 38 27 22 27 43 34 24 26 22 20
97 97 96 97 94 95 94 94 92 88 55 54 55 53 48 38 40 43 44 50 62 67 72 74 71 65 60 54 49 50 44 41 43 32 25 27 44 35 26 27 24 21 19
94 90 93 94 93 83 80 73 59 60 54 47 44 50 52 60 64 62 64 65 66 72 78 74 69 64 57 52 53 50 43 42 42 30 25 44 41 29 28 28 25 21 14
97 96 94 88 89 88 87 89 90 94 82 75 78 71 76 79 69 67 72 74 70 68 70 69 67 63 59 56 53 50 44 45 38 27 32 50 30 29 29 25 20 17 14
97 88 85 84 81 94 96 97 95 89 82 78 74 76 71 72 70 68 73 78 80 79 71 67 64 63 62 59 51 49 45 44 33 32 50 38 31 30 28 30 23 16 14
98 96 90 92 85 96 89 76 78 78 77 74 75 69 72 70 73 73 72 68 81 82 77 70 67 66 64 57 52 47 45 35 35 41 58 34 32 33 33 23 20 17 17
94 99 98 97 97 94 86 79 80 81 77 75 78 78 80 74 62 59 56 68 79 78 75 75 73 72 70 57 53 56 63 41 42 73 40 39 36 33 26 26 22 22 22
92 99 98 97 95 93 87 85 93 96 85 76 67 62 67 59 54 53 52 56 66 78 78 80 79 73 66 62 82 62 63 54 80 45 43 39 38 32 33 32 33 32 31
75 72 71 75 80 82 74 70 63 68 68 59 50 48 42 53 56 45 54 74 81 94 88 82 78 60 80 78 93 74 72 91 51 46 42 40 39 39 34 37 40 43 48
35 33 34 33 33 30 25 24 23 25 25 27 33 36 42 41 42 54 80 99 100 95 85 69 69 75 78 96 86 98 93 65 66 48 44 47 47 39 34 31 34 38 38
11 12 12 13 14 14 16 18 19 23 23 33 40 46 49 52 54 64 74 88 97 97 98 92 96 95 94 92 96 100 88 75 66 52 56 54 46 41 34 33 32 34 38
13 15 18 16 20 25 30 33 35 36 43 53 55 58 60 64 71 80 86 93 98 99 99 100 100 98 99 98 99 100 99 95 79 65 65 57 47 40 32 33 34 32 34
22 26 24 24 32 42 46 51 53 55 58 62 66 68 74 84 94 98 100 100 100 100 99 100 100 100 95 100 100 98 98 98 82 70 62 52 44 41 36 37 35 29 32
38 38 41 42 42 45 51 60 62 62 65 68 67 71 76 86 92 98 100 100 100 100 100 95 95 100 99 100 100 100 100 98 80 56 49 49 50 45 44 44 36 35 37
50 48 45 51 58 68 67 63 65 68 71 73 75 82 95 95 93 98 99 100 100 96 100 100 100 100 100 99 99 100 100 95 71 61 59 59 58 59 60 55 50 48 50
57 57 63 57 65 67 66 65 64 74 78 80 80 82 88 94 99 100 100 100 100 100 100 100 100 100 100 100 100 100 100 98 80 70 72 68 67 68 68 65 64 64 60

GFSMA_500_rhum_090.txt.gz
RH
24 27 29 28 26 22 20 19 17 15 14 16 18 21 23 26 28 30 32 35 40 41 40 38 37 40 40 44 43 43 41 38 41 36 30 27 27 26 30 33 28 18 15
19 23 27 30 32 32 30 30 29 27 25 24 25 28 30 32 35 37 37 40 42 43 42 39 36 36 41 44 44 46 46 44 42 37 32 28 27 27 29 30 24 17 15
20 18 20 26 32 34 36 36 37 36 34 31 32 34 37 40 41 43 43 44 45 44 43 39 35 38 45 46 45 45 46 47 45 39 34 29 25 27 29 30 23 16 16
36 29 19 17 23 30 36 41 42 42 44 45 42 43 48 51 51 50 49 49 48 46 44 38 37 41 57 51 45 44 45 47 46 40 33 30 28 26 31 28 22 17 17
54 40 30 22 17 23 30 39 44 46 44 42 46 48 56 61 61 59 56 52 50 48 43 38 40 45 53 46 42 44 48 51 48 40 34 33 32 32 31 25 20 18 18
64 52 46 36 26 20 23 31 38 43 45 46 46 49 56 60 60 58 54 48 45 42 41 45 47 56 45 44 44 42 48 54 48 38 38 35 35 36 29 21 19 19 21
76 64 54 51 43 31 22 22 29 34 37 40 38 35 40 41 46 46 46 46 46 52 55 53 54 45 47 48 50 55 52 52 47 38 40 37 37 36 28 21 19 22 24
94 92 92 65 51 40 24 22 23 27 25 22 23 22 32 42 40 45 54 57 60 60 60 57 48 42 46 48 50 57 62 53 47 41 39 38 38 36 28 22 22 24 38
96 94 96 96 96 93 74 42 28 29 28 27 26 34 45 70 69 72 69 64 62 64 56 45 42 47 48 55 58 67 61 55 46 44 42 40 40 36 25 23 27 42 40
95 95 96 97 96 97 97 96 93 94 75 74 85 86 79 74 75 71 74 72 68 53 40 42 50 58 59 65 71 68 62 55 49 44 43 42 41 34 24 29 45 39 23
97 97 97 97 97 97 97 97 96 98 97 95 81 76 71 70 60 49 46 47 39 40 48 55 64 68 75 76 74 66 63 55 49 49 44 43 42 31 27 40 44 24 27
97 96 97 96 97 97 97 97 96 96 95 89 76 65 62 60 56 55 48 46 58 61 62 62 66 74 75 72 70 65 60 55 53 53 44 44 43 27 31 46 30 25 28
97 96 96 96 96 97 96 96 96 96 91 79 77 73 74 73 69 63 62 58 55 61 62 65 71 74 75 70 68 65 61 59 56 53 46 44 37 33 42 45 24 29 25
96 97 96 95 97 96 96 97 96 89 81 74 74 80 76 70 68 65 66 61 56 55 62 60 63 66 70 71 69 68 66 62 58 50 46 42 33 38 53 29 30 26 24
64 76 94 95 91 92 96 96 96 86 81 80 72 72 70 66 67 70 66 65 57 58 58 59 58 62 76 77 74 70 69 65 54 51 60 40 60 52 53 31 32 32 27
43 46 60 74 88 97 98 96 96 84 81 78 75 74 74 74 70 72 64 60 61 61 56 54 50 51 64 76 78 77 75 68 60 62 77 90 52 66 37 33 34 24 21
34 54 71 82 87 96 91 94 95 91 93 91 92 86 81 84 82 76 65 58 56 61 54 54 54 61 74 90 87 85 75 69 63 73 82 57 79 45 40 36 30 26 25
38 51 63 84 97 99 100 97 98 99 97 90 74 58 53 44 43 33 26 32 37 44 52 55 64 82 95 95 89 73 59 72 86 94 76 87 66 42 41 35 32 32 33
20 55 69 70 76 80 82 80 75 66 52 28 18 13 12 13 14 15 15 18 25 35 39 55 91 99 97 90 97 95 86 99 99 96 99 97 50 47 39 35 39 41 41
25 35 44 43 40 37 33 24 16 12 11 11 11 13 15 17 21 26 29 36 43 52 58 68 79 87 88 96 99 96 98 99 99 98 100 50 66 52 42 48 52 45 42
14 14 14 14 13 12 11 11 11 11 14 17 23 28 31 36 41 44 49 53 65 75 88 98 98 96 99 100 100 99 95 99 100 100 70 83 72 62 60 60 51 47 44
15 14 12 12 12 12 14 16 19 20 26 35 36 40 46 49 52 54 59 63 66 78 85 90 94 99 98 100 100 100 100 100 100 100 81 81 94 78 73 61 54 48 41
17 15 13 14 16 21 26 29 32 38 39 45 52 53 55 60 58 58 66 74 82 92 97 95 98 100 98 100 100 100 100 100 100 100 100 100 99 96 75 62 52 52 45
19 18 20 28 30 35 39 43 45 45 49 54 52 54 58 61 64 70 81 92 94 95 99 99 93 99 100 100 100 100 100 100 100 100 100 100 97 75 61 60 59 55 54
24 25 40 47 44 48 52 52 53 44 49 54 56 54 59 60 67 75 81 87 90 93 95 100 99 100 100 99 100 100 100 100 100 100 100 100 93 78 71 69 64 63 63
36 40 45 49 57 58 57 59 58 56 61 61 59 59 64 71 68 80 82 86 90 91 89 96 87 90 100 100 100 100 100 100 100 100 100 100 99 88 79 78 77 77 74

GFSMA_500_rhum_093.txt.gz
RH
14 17 19 20 22 22 20 17 14 12 11 11 11 13 16 20 25 27 28 31 34 36 39 41 42 41 37 31 29 34 39 41 41 37 42 43 38 31 28 26 27 29 27
16 18 18 20 21 25 27 26 24 24 23 22 21 21 24 26 28 30 32 35 38 41 43 44 45 43 38 33 33 38 46 42 40 34 39 45 41 34 30 28 28 29 26
17 17 16 18 20 23 26 30 31 31 31 32 32 30 30 30 31 33 37 40 42 44 46 47 47 44 39 35 34 50 46 40 40 36 43 47 43 36 30 30 28 29 24
30 29 19 23 27 31 27 25 29 34 35 34 36 38 36 36 37 37 39 43 47 51 51 48 47 44 39 40 44 53 42 42 38 36 43 50 44 38 32 30 30 28 23
60 46 39 42 48 45 25 20 25 30 37 39 39 38 38 39 36 36 38 43 44 43 43 41 36 37 45 50 52 47 41 39 42 46 47 52 44 39 35 32 29 28 24
76 56 53 55 50 42 30 23 18 24 28 36 39 39 39 37 37 41 42 35 37 37 38 37 41 55 54 54 55 45 40 38 45 56 57 53 45 41 36 36 35 30 25
78 74 76 73 75 64 47 37 25 24 22 27 35 32 37 37 33 30 30 29 28 36 42 50 52 52 54 55 46 36 35 46 42 59 62 54 44 42 38 38 36 28 24
98 95 93 90 93 92 75 67 51 41 29 24 28 29 32 30 25 25 28 31 45 64 66 62 62 61 61 52 35 38 46 52 59 61 62 53 44 44 40 38 36 26 25
97 96 97 97 97 98 97 98 96 86 52 33 24 25 26 30 34 49 79 92 88 82 73 66 53 47 43 36 43 48 52 62 67 66 63 53 47 46 42 42 36 26 32
95 97 98 97 96 97 94 97 95 96 92 97 80 43 37 49 73 88 87 83 76 73 65 53 47 42 44 53 52 54 56 58 66 64 62 56 50 50 44 44 37 26 41
96 94 96 97 97 97 97 96 97 96 95 96 99 98 98 96 87 75 69 64 62 62 57 62 63 63 64 57 60 59 57 61 65 62 59 57 52 52 45 46 36 30 44
97 96 96 97 97 96 96 96 97 97 97 97 97 97 99 94 87 68 56 58 64 66 64 65 64 60 63 64 58 58 56 60 63 66 63 59 57 53 48 51 42 41 43
96 96 96 97 97 97 95 96 96 96 97 96 96 93 76 73 68 64 60 58 63 67 67 70 62 58 57 63 66 63 63 71 68 69 68 65 61 54 48 56 59 56 32
78 92 96 96 94 94 93 95 97 97 96 94 95 93 88 87 82 76 70 65 70 65 66 64 69 69 65 63 60 58 60 78 77 77 73 71 61 54 56 70 67 66 30
23 27 38 29 43 46 69 62 65 88 79 72 86 83 78 80 84 86 73 72 62 60 66 67 62 66 66 62 60 60 61 79 86 83 80 72 61 63 70 89 73 40 31
29 21 16 16 26 35 37 44 57 58 70 88 90 88 85 89 94 93 89 87 75 71 65 66 69 54 43 44 54 64 64 77 100 95 87 78 85 81 92 67 71 35 34
18 16 15 22 28 23 25 46 50 51 64 79 92 97 99 100 92 71 62 48 40 33 30 27 22 22 22 29 46 67 72 92 98 95 93 82 83 92 90 93 49 35 35
19 19 18 18 18 19 27 48 66 70 67 78 90 78 69 61 48 19 12 10 11 11 12 14 17 17 20 26 37 53 80 96 90 94 95 99 98 99 93 95 38 35 32
19 20 23 23 23 23 30 55 75 70 62 54 44 34 24 12 10 10 11 16 21 20 23 26 28 38 46 58 65 75 91 100 100 98 100 99 100 97 100 73 41 33 30
26 24 20 16 17 20 28 35 32 27 20 16 14 12 11 11 12 21 24 27 31 37 40 43 46 53 68 83 92 99 100 100 100 100 97 100 100 100 89 54 59 36 37
21 17 14 14 14 14 13 13 13 12 12 13 14 13 14 18 25 28 38 40 44 45 44 47 53 65 75 81 85 92 97 100 100 100 100 100 100 96 61 92 61 54 60
20 18 17 17 17 15 14 13 13 14 15 16 22 24 29 33 39 43 43 44 47 48 50 58 71 84 91 100 95 93 97 99 100 90 100 100 100 97 97 99 91 93 75
24 24 24 24 22 19 17 16 18 23 26 26 31 33 35 36 39 44 48 47 52 56 68 80 85 94 93 88 97 98 96 97 100 100 100 100 100 100 100 100 100 100 89
30 30 29 28 26 22 20 21 25 28 34 39 45 49 43 44 48 49 50 52 60 66 71 82 87 88 84 95 97 97 94 100 100 100 100 100 100 100 100 100 100 96 76
38 36 32 28 25 25 26 32 37 40 41 47 53 52 49 53 57 57 53 65 66 72 73 79 87 89 87 91 90 89 99 96 100 100 100 100 100 100 99 99 96 88 81
40 40 39 37 37 34 37 42 50 53 58 59 60 59 58 55 56 55 59 67 74 72 74 76 81 81 81 90 96 98 100 100 100 100 100 100 100 100 100 100 100 93 81